Observation data for Wall on 09/11/2017      Previous  Date       Current Mesonet Observations  Soil Data  Daily Summary Page  Observations in Plain Language
KWA1 110500Z 13005KT 16/11 A3018 RMK A01 T01630110  RH  071%=      5-min Rain = 0
KWA1 110501Z 13005KT 16/11 A3018 RMK A01 T01630110  RH  071%=      5-min Rain = 0
KWA1 110502Z 13005KT 16/11 A3018 RMK A01 T01630110  RH  071%=      5-min Rain = 0
KWA1 110503Z 13005KT 16/11 A3018 RMK A01 T01620111  RH  071%=      5-min Rain = 0
KWA1 110504Z 13005KT 16/11 A3018 RMK A01 T01620110  RH  071%=      5-min Rain = 0
KWA1 110505Z 14005KT 16/11 A3019 RMK A01 T01620110  RH  072%=      5-min Rain = 0
KWA1 110506Z 13005KT 16/11 A3019 RMK A01 T01620110  RH  072%=      5-min Rain = 0
KWA1 110507Z 13005KT 16/11 A3019 RMK A01 T01620111  RH  072%=      5-min Rain = 0
KWA1 110508Z 13005KT 16/11 A3019 RMK A01 T01620111  RH  072%=      5-min Rain = 0
KWA1 110509Z 13005KT 16/11 A3018 RMK A01 T01620111  RH  072%=      5-min Rain = 0
KWA1 110510Z 13005KT 16/11 A3018 RMK A01 T01610111  RH  072%=      5-min Rain = 0
KWA1 110511Z 13005KT 16/11 A3018 RMK A01 T01610111  RH  072%=      5-min Rain = 0
KWA1 110512Z 13005KT 16/11 A3018 RMK A01 T01610111  RH  072%=      5-min Rain = 0
KWA1 110513Z 13005KT 16/11 A3018 RMK A01 T01610111  RH  072%=      5-min Rain = 0
KWA1 110514Z 13005KT 16/11 A3018 RMK A01 T01600111  RH  073%=      5-min Rain = 0
KWA1 110515Z 13005KT 16/11 A3018 RMK A01 T01600111  RH  073%=      5-min Rain = 0
KWA1 110516Z 13005KT 16/11 A3018 RMK A01 T01600111  RH  073%=      5-min Rain = 0
KWA1 110517Z 13005KT 16/11 A3018 RMK A01 T01590111  RH  073%=      5-min Rain = 0
KWA1 110518Z 13005KT 16/11 A3018 RMK A01 T01590111  RH  073%=      5-min Rain = 0
KWA1 110519Z 13005KT 16/11 A3018 RMK A01 T01590111  RH  073%=      5-min Rain = 0
KWA1 110520Z 14005KT 16/11 A3018 RMK A01 T01590111  RH  073%=      5-min Rain = 0
KWA1 110521Z 14005KT 16/11 A3018 RMK A01 T01590111  RH  073%=      5-min Rain = 0
KWA1 110522Z 14004KT 16/11 A3018 RMK A01 T01590111  RH  073%=      5-min Rain = 0
KWA1 110523Z 14004KT 16/11 A3018 RMK A01 T01590112  RH  073%=      5-min Rain = 0
KWA1 110524Z 13005KT 16/11 A3018 RMK A01 T01590111  RH  073%=      5-min Rain = 0
KWA1 110525Z 13005KT 16/11 A3018 RMK A01 T01580111  RH  074%=      5-min Rain = 0
KWA1 110526Z 13005KT 16/11 A3018 RMK A01 T01580111  RH  074%=      5-min Rain = 0
KWA1 110527Z 13005KT 16/11 A3018 RMK A01 T01570112  RH  074%=      5-min Rain = 0
KWA1 110528Z 13004KT 16/11 A3018 RMK A01 T01570111  RH  074%=      5-min Rain = 0
KWA1 110529Z 14005KT 16/11 A3018 RMK A01 T01570111  RH  074%=      5-min Rain = 0
KWA1 110530Z 14005KT 16/11 A3018 RMK A01 T01570111  RH  074%=      5-min Rain = 0
KWA1 110531Z 14005KT 16/11 A3018 RMK A01 T01570111  RH  074%=      5-min Rain = 0
KWA1 110532Z 14005KT 16/11 A3018 RMK A01 T01570111  RH  074%=      5-min Rain = 0
KWA1 110533Z 14005KT 16/11 A3018 RMK A01 T01570111  RH  074%=      5-min Rain = 0
KWA1 110534Z 14005KT 16/11 A3018 RMK A01 T01570111  RH  074%=      5-min Rain = 0
KWA1 110535Z 13005KT 16/11 A3018 RMK A01 T01570111  RH  074%=      5-min Rain = 0
KWA1 110536Z 13005KT 16/11 A3018 RMK A01 T01570112  RH  074%=      5-min Rain = 0
KWA1 110537Z 13005KT 16/11 A3018 RMK A01 T01570111  RH  074%=      5-min Rain = 0
KWA1 110538Z 14005KT 16/11 A3018 RMK A01 T01570111  RH  074%=      5-min Rain = 0
KWA1 110539Z 13005KT 16/11 A3018 RMK A01 T01570111  RH  074%=      5-min Rain = 0
KWA1 110540Z 14005KT 16/11 A3018 RMK A01 T01580112  RH  074%=      5-min Rain = 0
KWA1 110541Z 13005KT 16/11 A3018 RMK A01 T01580112  RH  074%=      5-min Rain = 0
KWA1 110542Z 13005KT 16/11 A3018 RMK A01 T01580112  RH  074%=      5-min Rain = 0
KWA1 110543Z 13005KT 16/11 A3018 RMK A01 T01580112  RH  074%=      5-min Rain = 0
KWA1 110544Z 13005KT 16/11 A3018 RMK A01 T01580112  RH  074%=      5-min Rain = 0
KWA1 110545Z 13005KT 16/11 A3018 RMK A01 T01580112  RH  074%=      5-min Rain = 0
KWA1 110546Z 13004KT 16/11 A3018 RMK A01 T01580112  RH  074%=      5-min Rain = 0
KWA1 110547Z 13004KT 16/11 A3018 RMK A01 T01580112  RH  074%=      5-min Rain = 0
KWA1 110548Z 13004KT 16/11 A3018 RMK A01 T01580112  RH  074%=      5-min Rain = 0
KWA1 110549Z 13004KT 16/11 A3018 RMK A01 T01570112  RH  074%=      5-min Rain = 0
KWA1 110550Z 14005KT 16/11 A3018 RMK A01 T01570112  RH  074%=      5-min Rain = 0
KWA1 110551Z 14005KT 16/11 A3018 RMK A01 T01560112  RH  075%=      5-min Rain = 0
KWA1 110552Z 14004KT 16/11 A3018 RMK A01 T01560112  RH  075%=      5-min Rain = 0
KWA1 110553Z 13004KT 16/11 A3018 RMK A01 T01550112  RH  075%=      5-min Rain = 0
KWA1 110554Z 13004KT 16/11 A3018 RMK A01 T01550112  RH  075%=      5-min Rain = 0
KWA1 110555Z 14005KT 16/11 A3018 RMK A01 T01550112  RH  075%=      5-min Rain = 0
KWA1 110556Z 14005KT 16/11 A3018 RMK A01 T01550112  RH  075%=      5-min Rain = 0
KWA1 110557Z 14005KT 16/11 A3018 RMK A01 T01550112  RH  075%=      5-min Rain = 0
KWA1 110558Z 14005KT 16/11 A3018 RMK A01 T01550111  RH  075%=      5-min Rain = 0
KWA1 110559Z 14005KT 16/11 A3018 RMK A01 T01550112  RH  075%=      5-min Rain = 0
KWA1 110600Z 14005KT 15/11 A3018 RMK A01 T01540111  RH  075%=      5-min Rain = 0
KWA1 110601Z 14005KT 15/11 A3018 RMK A01 T01540111  RH  076%=      5-min Rain = 0
KWA1 110602Z 13005KT 15/11 A3018 RMK A01 T01540111  RH  076%=      5-min Rain = 0
KWA1 110603Z 14005KT 15/11 A3018 RMK A01 T01540112  RH  076%=      5-min Rain = 0
KWA1 110604Z 14005KT 15/11 A3018 RMK A01 T01540112  RH  076%=      5-min Rain = 0
KWA1 110605Z 14005KT 15/11 A3018 RMK A01 T01540111  RH  076%=      5-min Rain = 0
KWA1 110606Z 14005KT 15/11 A3018 RMK A01 T01540112  RH  076%=      5-min Rain = 0
KWA1 110607Z 14004KT 15/11 A3018 RMK A01 T01540111  RH  076%=      5-min Rain = 0
KWA1 110608Z 14004KT 15/11 A3018 RMK A01 T01540112  RH  076%=      5-min Rain = 0
KWA1 110609Z 14004KT 15/11 A3018 RMK A01 T01530111  RH  076%=      5-min Rain = 0
KWA1 110610Z 14004KT 15/11 A3018 RMK A01 T01530112  RH  076%=      5-min Rain = 0
KWA1 110611Z 14004KT 15/11 A3018 RMK A01 T01530112  RH  076%=      5-min Rain = 0
KWA1 110612Z 14004KT 15/11 A3018 RMK A01 T01530112  RH  076%=      5-min Rain = 0
KWA1 110613Z 14004KT 15/11 A3018 RMK A01 T01530112  RH  076%=      5-min Rain = 0
KWA1 110614Z 14004KT 15/11 A3018 RMK A01 T01520111  RH  076%=      5-min Rain = 0
KWA1 110615Z 14004KT 15/11 A3018 RMK A01 T01520111  RH  076%=      5-min Rain = 0
KWA1 110616Z 14004KT 15/11 A3018 RMK A01 T01520111  RH  076%=      5-min Rain = 0
KWA1 110617Z 14004KT 15/11 A3018 RMK A01 T01520111  RH  077%=      5-min Rain = 0
KWA1 110618Z 14004KT 15/11 A3018 RMK A01 T01520111  RH  077%=      5-min Rain = 0
KWA1 110619Z 14004KT 15/11 A3018 RMK A01 T01520111  RH  077%=      5-min Rain = 0
KWA1 110620Z 14004KT 15/11 A3018 RMK A01 T01520111  RH  077%=      5-min Rain = 0
KWA1 110621Z 14003KT 15/11 A3018 RMK A01 T01520111  RH  077%=      5-min Rain = 0
KWA1 110622Z 14003KT 15/11 A3018 RMK A01 T01520111  RH  076%=      5-min Rain = 0
KWA1 110623Z 14004KT 15/11 A3018 RMK A01 T01520111  RH  076%=      5-min Rain = 0
KWA1 110624Z 14004KT 15/11 A3018 RMK A01 T01520111  RH  076%=      5-min Rain = 0
KWA1 110625Z 14003KT 15/11 A3018 RMK A01 T01530112  RH  076%=      5-min Rain = 0
KWA1 110626Z 15004KT 15/11 A3018 RMK A01 T01530111  RH  076%=      5-min Rain = 0
KWA1 110627Z 15004KT 15/11 A3018 RMK A01 T01530111  RH  076%=      5-min Rain = 0
KWA1 110628Z 15005KT 15/11 A3018 RMK A01 T01540111  RH  076%=      5-min Rain = 0
KWA1 110629Z 15005KT 15/11 A3018 RMK A01 T01540111  RH  075%=      5-min Rain = 0
KWA1 110630Z 15004KT 15/11 A3018 RMK A01 T01540110  RH  075%=      5-min Rain = 0
KWA1 110631Z 15004KT 15/11 A3018 RMK A01 T01540111  RH  075%=      5-min Rain = 0
KWA1 110632Z 15004KT 15/11 A3018 RMK A01 T01540111  RH  075%=      5-min Rain = 0
KWA1 110633Z 15004KT 15/11 A3018 RMK A01 T01540111  RH  075%=      5-min Rain = 0
KWA1 110634Z 15004KT 15/11 A3018 RMK A01 T01540110  RH  075%=      5-min Rain = 0
KWA1 110635Z 15004KT 15/11 A3018 RMK A01 T01540111  RH  075%=      5-min Rain = 0
KWA1 110636Z 14004KT 15/11 A3018 RMK A01 T01540110  RH  075%=      5-min Rain = 0
KWA1 110637Z 14004KT 15/11 A3018 RMK A01 T01540110  RH  075%=      5-min Rain = 0
KWA1 110638Z 14004KT 15/11 A3018 RMK A01 T01530110  RH  075%=      5-min Rain = 0
KWA1 110639Z 14004KT 15/11 A3018 RMK A01 T01530109  RH  075%=      5-min Rain = 0
KWA1 110640Z 14005KT 15/11 A3018 RMK A01 T01520110  RH  076%=      5-min Rain = 0
KWA1 110641Z 14005KT 15/11 A3018 RMK A01 T01510110  RH  076%=      5-min Rain = 0
KWA1 110642Z 14004KT 15/11 A3018 RMK A01 T01510110  RH  076%=      5-min Rain = 0
KWA1 110643Z 14004KT 15/11 A3018 RMK A01 T01510111  RH  076%=      5-min Rain = 0
KWA1 110644Z 14003KT 15/11 A3018 RMK A01 T01510111  RH  077%=      5-min Rain = 0
KWA1 110645Z 13003KT 15/11 A3018 RMK A01 T01510111  RH  077%=      5-min Rain = 0
KWA1 110646Z 14003KT 15/11 A3018 RMK A01 T01500111  RH  077%=      5-min Rain = 0
KWA1 110647Z 14003KT 15/11 A3018 RMK A01 T01510111  RH  077%=      5-min Rain = 0
KWA1 110648Z 14003KT 15/11 A3018 RMK A01 T01500111  RH  077%=      5-min Rain = 0
KWA1 110649Z 15004KT 15/11 A3018 RMK A01 T01500110  RH  077%=      5-min Rain = 0
KWA1 110650Z 14004KT 15/11 A3018 RMK A01 T01500110  RH  077%=      5-min Rain = 0
KWA1 110651Z 14003KT 15/11 A3018 RMK A01 T01500110  RH  077%=      5-min Rain = 0
KWA1 110652Z 14004KT 15/11 A3018 RMK A01 T01500110  RH  077%=      5-min Rain = 0
KWA1 110653Z 14004KT 15/11 A3018 RMK A01 T01500110  RH  077%=      5-min Rain = 0
KWA1 110654Z 14004KT 15/11 A3018 RMK A01 T01500110  RH  077%=      5-min Rain = 0
KWA1 110655Z 14004KT 15/11 A3018 RMK A01 T01510111  RH  077%=      5-min Rain = 0
KWA1 110656Z 14004KT 15/11 A3018 RMK A01 T01510111  RH  077%=      5-min Rain = 0
KWA1 110657Z 13003KT 15/11 A3018 RMK A01 T01520111  RH  077%=      5-min Rain = 0
KWA1 110658Z 13003KT 15/11 A3018 RMK A01 T01520111  RH  076%=      5-min Rain = 0
KWA1 110659Z 13003KT 15/11 A3018 RMK A01 T01520111  RH  076%=      5-min Rain = 0
KWA1 110700Z 13003KT 15/11 A3018 RMK A01 T01520111  RH  076%=      5-min Rain = 0
KWA1 110701Z 13004KT 15/11 A3018 RMK A01 T01510110  RH  076%=      5-min Rain = 0
KWA1 110702Z 13004KT 15/11 A3018 RMK A01 T01500110  RH  077%=      5-min Rain = 0
KWA1 110703Z 13004KT 15/11 A3018 RMK A01 T01500110  RH  077%=      5-min Rain = 0
KWA1 110704Z 13004KT 15/11 A3018 RMK A01 T01500111  RH  077%=      5-min Rain = 0
KWA1 110705Z 13004KT 15/11 A3018 RMK A01 T01490110  RH  077%=      5-min Rain = 0
KWA1 110706Z 13005KT 15/11 A3018 RMK A01 T01490110  RH  078%=      5-min Rain = 0
KWA1 110707Z 13005KT 15/11 A3018 RMK A01 T01490110  RH  078%=      5-min Rain = 0
KWA1 110708Z 12004KT 15/11 A3018 RMK A01 T01500110  RH  077%=      5-min Rain = 0
KWA1 110709Z 12005KT 15/11 A3018 RMK A01 T01530111  RH  076%=      5-min Rain = 0
KWA1 110710Z 13005KT 16/11 A3018 RMK A01 T01550112  RH  075%=      5-min Rain = 0
KWA1 110711Z 12004KT 16/11 A3018 RMK A01 T01560112  RH  075%=      5-min Rain = 0
KWA1 110712Z 12004KT 16/11 A3018 RMK A01 T01560111  RH  075%=      5-min Rain = 0
KWA1 110713Z 12005KT 16/11 A3018 RMK A01 T01550111  RH  075%=      5-min Rain = 0
KWA1 110714Z 13005KT 16/11 A3018 RMK A01 T01560111  RH  074%=      5-min Rain = 0
KWA1 110715Z 12004KT 16/11 A3017 RMK A01 T01570111  RH  074%=      5-min Rain = 0
KWA1 110716Z 13004KT 16/11 A3017 RMK A01 T01570111  RH  074%=      5-min Rain = 0
KWA1 110717Z 13004KT 16/11 A3017 RMK A01 T01570112  RH  074%=      5-min Rain = 0
KWA1 110718Z 13004KT 16/11 A3017 RMK A01 T01570111  RH  074%=      5-min Rain = 0
KWA1 110719Z 13005KT 16/11 A3017 RMK A01 T01570111  RH  074%=      5-min Rain = 0
KWA1 110720Z 13004KT 16/11 A3017 RMK A01 T01560111  RH  074%=      5-min Rain = 0
KWA1 110721Z 13005KT 16/11 A3017 RMK A01 T01560111  RH  075%=      5-min Rain = 0
KWA1 110722Z 13004KT 16/11 A3017 RMK A01 T01560111  RH  075%=      5-min Rain = 0
KWA1 110723Z 12004KT 16/11 A3017 RMK A01 T01560111  RH  075%=      5-min Rain = 0
KWA1 110724Z 13004KT 16/11 A3017 RMK A01 T01550111  RH  075%=      5-min Rain = 0
KWA1 110725Z 12004KT 15/11 A3017 RMK A01 T01540110  RH  075%=      5-min Rain = 0
KWA1 110726Z 13004KT 15/11 A3017 RMK A01 T01530110  RH  075%=      5-min Rain = 0
KWA1 110727Z 13004KT 15/11 A3017 RMK A01 T01530110  RH  076%=      5-min Rain = 0
KWA1 110728Z 12003KT 15/11 A3017 RMK A01 T01520110  RH  076%=      5-min Rain = 0
KWA1 110729Z 12003KT 15/11 A3017 RMK A01 T01520111  RH  076%=      5-min Rain = 0
KWA1 110730Z 12003KT 15/11 A3017 RMK A01 T01510110  RH  077%=      5-min Rain = 0
KWA1 110731Z 12003KT 15/11 A3017 RMK A01 T01500110  RH  077%=      5-min Rain = 0
KWA1 110732Z 12003KT 15/11 A3017 RMK A01 T01490110  RH  077%=      5-min Rain = 0
KWA1 110733Z 12003KT 15/11 A3017 RMK A01 T01490110  RH  077%=      5-min Rain = 0
KWA1 110734Z 13003KT 15/11 A3017 RMK A01 T01490110  RH  078%=      5-min Rain = 0
KWA1 110735Z 13003KT 15/11 A3017 RMK A01 T01480110  RH  078%=      5-min Rain = 0
KWA1 110736Z 13003KT 15/11 A3018 RMK A01 T01480110  RH  078%=      5-min Rain = 0
KWA1 110737Z 13003KT 15/11 A3017 RMK A01 T01470110  RH  078%=      5-min Rain = 0
KWA1 110738Z 13003KT 15/11 A3017 RMK A01 T01470110  RH  078%=      5-min Rain = 0
KWA1 110739Z 13003KT 15/11 A3017 RMK A01 T01470110  RH  079%=      5-min Rain = 0
KWA1 110740Z 13003KT 15/11 A3017 RMK A01 T01460110  RH  079%=      5-min Rain = 0
KWA1 110741Z 13003KT 15/11 A3017 RMK A01 T01460110  RH  079%=      5-min Rain = 0
KWA1 110742Z 12003KT 15/11 A3017 RMK A01 T01460110  RH  079%=      5-min Rain = 0
KWA1 110743Z 12003KT 15/11 A3017 RMK A01 T01460110  RH  079%=      5-min Rain = 0
KWA1 110744Z 12003KT 15/11 A3017 RMK A01 T01450110  RH  079%=      5-min Rain = 0
KWA1 110745Z 12003KT 15/11 A3017 RMK A01 T01450109  RH  079%=      5-min Rain = 0
KWA1 110746Z 11003KT 14/11 A3017 RMK A01 T01440109  RH  079%=      5-min Rain = 0
KWA1 110747Z 11003KT 14/11 A3017 RMK A01 T01440109  RH  079%=      5-min Rain = 0
KWA1 110748Z 11003KT 14/11 A3017 RMK A01 T01430109  RH  080%=      5-min Rain = 0
KWA1 110749Z 11003KT 14/11 A3017 RMK A01 T01420109  RH  080%=      5-min Rain = 0
KWA1 110750Z 11002KT 14/11 A3017 RMK A01 T01420109  RH  081%=      5-min Rain = 0
KWA1 110751Z 11003KT 14/11 A3017 RMK A01 T01420109  RH  081%=      5-min Rain = 0
KWA1 110752Z 11002KT 14/11 A3017 RMK A01 T01410109  RH  081%=      5-min Rain = 0
KWA1 110753Z 11002KT 14/11 A3017 RMK A01 T01400109  RH  081%=      5-min Rain = 0
KWA1 110754Z 11002KT 14/11 A3017 RMK A01 T01400108  RH  081%=      5-min Rain = 0
KWA1 110755Z 11002KT 14/11 A3017 RMK A01 T01390108  RH  081%=      5-min Rain = 0
KWA1 110756Z 11002KT 14/11 A3017 RMK A01 T01390107  RH  081%=      5-min Rain = 0
KWA1 110757Z 11001KT 14/11 A3017 RMK A01 T01380107  RH  081%=      5-min Rain = 0
KWA1 110758Z 11001KT 14/11 A3017 RMK A01 T01380105  RH  081%=      5-min Rain = 0
KWA1 110759Z 11001KT 14/11 A3017 RMK A01 T01370105  RH  081%=      5-min Rain = 0
KWA1 110800Z 11001KT 14/11 A3017 RMK A01 T01370107  RH  082%=      5-min Rain = 0
KWA1 110801Z 11001KT 14/11 A3017 RMK A01 T01370108  RH  082%=      5-min Rain = 0
KWA1 110802Z 11001KT 14/11 A3017 RMK A01 T01370106  RH  081%=      5-min Rain = 0
KWA1 110803Z 11001KT 14/11 A3017 RMK A01 T01370105  RH  081%=      5-min Rain = 0
KWA1 110804Z 11001KT 14/11 A3017 RMK A01 T01360105  RH  081%=      5-min Rain = 0
KWA1 110805Z 11000KT 14/11 A3017 RMK A01 T01360105  RH  081%=      5-min Rain = 0
KWA1 110806Z 09000KT 14/11 A3017 RMK A01 T01350105  RH  082%=      5-min Rain = 0
KWA1 110807Z 09000KT 14/11 A3017 RMK A01 T01350105  RH  082%=      5-min Rain = 0
KWA1 110808Z 00000KT 13/10 A3017 RMK A01 T01340104  RH  082%=      5-min Rain = 0
KWA1 110809Z 00000KT 13/10 A3017 RMK A01 T01340104  RH  082%=      5-min Rain = 0
KWA1 110810Z 00000KT 13/10 A3017 RMK A01 T01340104  RH  082%=      5-min Rain = 0
KWA1 110811Z 00000KT 13/10 A3017 RMK A01 T01330104  RH  083%=      5-min Rain = 0
KWA1 110812Z 00000KT 13/10 A3017 RMK A01 T01330104  RH  083%=      5-min Rain = 0
KWA1 110813Z 00000KT 13/10 A3017 RMK A01 T01320103  RH  082%=      5-min Rain = 0
KWA1 110814Z 00000KT 13/10 A3017 RMK A01 T01320103  RH  083%=      5-min Rain = 0
KWA1 110815Z 00000KT 13/10 A3017 RMK A01 T01320103  RH  083%=      5-min Rain = 0
KWA1 110816Z 00000KT 13/10 A3017 RMK A01 T01310103  RH  083%=      5-min Rain = 0
KWA1 110817Z 00000KT 13/10 A3017 RMK A01 T01310102  RH  083%=      5-min Rain = 0
KWA1 110818Z 00000KT 13/10 A3017 RMK A01 T01300102  RH  083%=      5-min Rain = 0
KWA1 110819Z 00000KT 13/10 A3017 RMK A01 T01300102  RH  083%=      5-min Rain = 0
KWA1 110820Z 00000KT 13/10 A3017 RMK A01 T01300102  RH  083%=      5-min Rain = 0
KWA1 110821Z 15000KT 13/10 A3017 RMK A01 T01300101  RH  083%=      5-min Rain = 0
KWA1 110822Z 00000KT 13/10 A3017 RMK A01 T01300101  RH  083%=      5-min Rain = 0
KWA1 110823Z 00000KT 13/10 A3017 RMK A01 T01300101  RH  083%=      5-min Rain = 0
KWA1 110824Z 00000KT 13/10 A3017 RMK A01 T01300099  RH  081%=      5-min Rain = 0
KWA1 110825Z 00000KT 13/10 A3017 RMK A01 T01300098  RH  081%=      5-min Rain = 0
KWA1 110826Z 28000KT 13/10 A3017 RMK A01 T01300097  RH  081%=      5-min Rain = 0
KWA1 110827Z 29001KT 13/10 A3017 RMK A01 T01300097  RH  081%=      5-min Rain = 0
KWA1 110828Z 30001KT 13/10 A3017 RMK A01 T01290097  RH  081%=      5-min Rain = 0
KWA1 110829Z 31001KT 13/10 A3017 RMK A01 T01290098  RH  081%=      5-min Rain = 0
KWA1 110830Z 32002KT 13/10 A3017 RMK A01 T01290097  RH  081%=      5-min Rain = 0
KWA1 110831Z 32002KT 13/10 A3017 RMK A01 T01280097  RH  082%=      5-min Rain = 0
KWA1 110832Z 32002KT 13/10 A3017 RMK A01 T01280098  RH  082%=      5-min Rain = 0
KWA1 110833Z 33002KT 13/10 A3017 RMK A01 T01280099  RH  083%=      5-min Rain = 0
KWA1 110834Z 33002KT 13/10 A3017 RMK A01 T01280099  RH  083%=      5-min Rain = 0
KWA1 110835Z 33003KT 13/10 A3017 RMK A01 T01270100  RH  083%=      5-min Rain = 0
KWA1 110836Z 33003KT 13/10 A3017 RMK A01 T01270100  RH  083%=      5-min Rain = 0
KWA1 110837Z 33002KT 13/10 A3017 RMK A01 T01270100  RH  084%=      5-min Rain = 0
KWA1 110838Z 33002KT 13/10 A3017 RMK A01 T01270101  RH  084%=      5-min Rain = 0
KWA1 110839Z 33002KT 13/10 A3017 RMK A01 T01270101  RH  084%=      5-min Rain = 0
KWA1 110840Z 34002KT 13/10 A3017 RMK A01 T01270101  RH  084%=      5-min Rain = 0
KWA1 110841Z 34002KT 13/10 A3017 RMK A01 T01270102  RH  084%=      5-min Rain = 0
KWA1 110842Z 35002KT 13/10 A3017 RMK A01 T01280103  RH  085%=      5-min Rain = 0
KWA1 110843Z 35002KT 13/10 A3017 RMK A01 T01280103  RH  085%=      5-min Rain = 0
KWA1 110844Z 35002KT 13/10 A3017 RMK A01 T01280104  RH  085%=      5-min Rain = 0
KWA1 110845Z 00002KT 13/10 A3017 RMK A01 T01280103  RH  085%=      5-min Rain = 0
KWA1 110846Z 00002KT 13/10 A3017 RMK A01 T01280103  RH  085%=      5-min Rain = 0
KWA1 110847Z 01002KT 13/10 A3017 RMK A01 T01280104  RH  085%=      5-min Rain = 0
KWA1 110848Z 01002KT 13/10 A3017 RMK A01 T01280104  RH  085%=      5-min Rain = 0
KWA1 110849Z 01002KT 13/10 A3017 RMK A01 T01280104  RH  085%=      5-min Rain = 0
KWA1 110850Z 01002KT 13/10 A3017 RMK A01 T01280104  RH  085%=      5-min Rain = 0
KWA1 110851Z 02002KT 13/10 A3017 RMK A01 T01280103  RH  085%=      5-min Rain = 0
KWA1 110852Z 02002KT 13/10 A3017 RMK A01 T01280104  RH  085%=      5-min Rain = 0
KWA1 110853Z 02002KT 13/10 A3017 RMK A01 T01280104  RH  085%=      5-min Rain = 0
KWA1 110854Z 02002KT 13/10 A3017 RMK A01 T01280104  RH  085%=      5-min Rain = 0
KWA1 110855Z 02002KT 13/10 A3017 RMK A01 T01280104  RH  085%=      5-min Rain = 0
KWA1 110856Z 02002KT 13/10 A3017 RMK A01 T01270104  RH  085%=      5-min Rain = 0
KWA1 110857Z 02002KT 13/10 A3017 RMK A01 T01280104  RH  085%=      5-min Rain = 0
KWA1 110858Z 02002KT 13/10 A3017 RMK A01 T01280103  RH  085%=      5-min Rain = 0
KWA1 110859Z 02002KT 13/10 A3017 RMK A01 T01280103  RH  085%=      5-min Rain = 0
KWA1 110900Z 02002KT 13/10 A3017 RMK A01 T01280103  RH  085%=      5-min Rain = 0
KWA1 110901Z 01002KT 13/10 A3017 RMK A01 T01270103  RH  085%=      5-min Rain = 0
KWA1 110902Z 01002KT 13/10 A3017 RMK A01 T01270103  RH  085%=      5-min Rain = 0
KWA1 110903Z 01003KT 13/10 A3017 RMK A01 T01270103  RH  085%=      5-min Rain = 0
KWA1 110904Z 01003KT 13/10 A3017 RMK A01 T01270103  RH  085%=      5-min Rain = 0
KWA1 110905Z 01003KT 13/10 A3017 RMK A01 T01270103  RH  085%=      5-min Rain = 0
KWA1 110906Z 01002KT 13/10 A3017 RMK A01 T01260102  RH  085%=      5-min Rain = 0
KWA1 110907Z 01002KT 13/10 A3017 RMK A01 T01260102  RH  085%=      5-min Rain = 0
KWA1 110908Z 01002KT 13/10 A3017 RMK A01 T01260102  RH  085%=      5-min Rain = 0
KWA1 110909Z 01002KT 13/10 A3017 RMK A01 T01260101  RH  085%=      5-min Rain = 0
KWA1 110910Z 01002KT 13/10 A3017 RMK A01 T01260101  RH  084%=      5-min Rain = 0
KWA1 110911Z 01003KT 13/10 A3017 RMK A01 T01270101  RH  084%=      5-min Rain = 0
KWA1 110912Z 00003KT 13/10 A3017 RMK A01 T01270102  RH  084%=      5-min Rain = 0
KWA1 110913Z 00003KT 13/10 A3017 RMK A01 T01270102  RH  084%=      5-min Rain = 0
KWA1 110914Z 00003KT 13/10 A3017 RMK A01 T01270102  RH  085%=      5-min Rain = 0
KWA1 110915Z 00003KT 13/10 A3017 RMK A01 T01270102  RH  085%=      5-min Rain = 0
KWA1 110916Z 00003KT 13/10 A3017 RMK A01 T01260100  RH  084%=      5-min Rain = 0
KWA1 110917Z 00003KT 13/10 A3017 RMK A01 T01260100  RH  085%=      5-min Rain = 0
KWA1 110918Z 00003KT 13/10 A3017 RMK A01 T01250100  RH  085%=      5-min Rain = 0
KWA1 110919Z 00003KT 13/10 A3017 RMK A01 T01250100  RH  085%=      5-min Rain = 0
KWA1 110920Z 00003KT 13/10 A3017 RMK A01 T01250100  RH  085%=      5-min Rain = 0
KWA1 110921Z 00003KT 12/10 A3017 RMK A01 T01240100  RH  085%=      5-min Rain = 0
KWA1 110922Z 00003KT 12/10 A3017 RMK A01 T01240100  RH  085%=      5-min Rain = 0
KWA1 110923Z 00003KT 12/10 A3017 RMK A01 T01240100  RH  085%=      5-min Rain = 0
KWA1 110924Z 00004KT 12/10 A3017 RMK A01 T01240101  RH  086%=      5-min Rain = 0
KWA1 110925Z 00004KT 12/10 A3017 RMK A01 T01240102  RH  086%=      5-min Rain = 0
KWA1 110926Z 00004KT 13/10 A3017 RMK A01 T01250102  RH  086%=      5-min Rain = 0
KWA1 110927Z 00004KT 13/10 A3017 RMK A01 T01260102  RH  085%=      5-min Rain = 0
KWA1 110928Z 00005KT 13/10 A3017 RMK A01 T01270102  RH  085%=      5-min Rain = 0
KWA1 110929Z 00005KT 13/10 A3017 RMK A01 T01270101  RH  085%=      5-min Rain = 0
KWA1 110930Z 00005KT 13/10 A3017 RMK A01 T01270101  RH  084%=      5-min Rain = 0
KWA1 110931Z 01005KT 13/10 A3017 RMK A01 T01260100  RH  084%=      5-min Rain = 0
KWA1 110932Z 01005KT 12/10 A3017 RMK A01 T01240099  RH  085%=      5-min Rain = 0
KWA1 110933Z 01005KT 12/10 A3017 RMK A01 T01230099  RH  085%=      5-min Rain = 0
KWA1 110934Z 01005KT 12/10 A3017 RMK A01 T01230100  RH  086%=      5-min Rain = 0
KWA1 110935Z 01005KT 12/10 A3017 RMK A01 T01220100  RH  086%=      5-min Rain = 0
KWA1 110936Z 01005KT 12/10 A3017 RMK A01 T01220101  RH  087%=      5-min Rain = 0
KWA1 110937Z 01005KT 12/10 A3017 RMK A01 T01220101  RH  087%=      5-min Rain = 0
KWA1 110938Z 01005KT 12/10 A3017 RMK A01 T01220101  RH  087%=      5-min Rain = 0
KWA1 110939Z 01005KT 12/10 A3017 RMK A01 T01220101  RH  087%=      5-min Rain = 0
KWA1 110940Z 01005KT 12/10 A3017 RMK A01 T01220101  RH  087%=      5-min Rain = 0
KWA1 110941Z 01005KT 12/10 A3017 RMK A01 T01210100  RH  087%=      5-min Rain = 0
KWA1 110942Z 01005KT 12/10 A3017 RMK A01 T01210100  RH  087%=      5-min Rain = 0
KWA1 110943Z 01005KT 12/10 A3017 RMK A01 T01210100  RH  087%=      5-min Rain = 0
KWA1 110944Z 01005KT 12/10 A3017 RMK A01 T01210100  RH  087%=      5-min Rain = 0
KWA1 110945Z 01005KT 12/10 A3017 RMK A01 T01210101  RH  088%=      5-min Rain = 0
KWA1 110946Z 01005KT 12/10 A3017 RMK A01 T01210101  RH  087%=      5-min Rain = 0
KWA1 110947Z 01005KT 12/10 A3017 RMK A01 T01210101  RH  087%=      5-min Rain = 0
KWA1 110948Z 01005KT 12/10 A3017 RMK A01 T01210101  RH  087%=      5-min Rain = 0
KWA1 110949Z 01005KT 12/10 A3017 RMK A01 T01210101  RH  087%=      5-min Rain = 0
KWA1 110950Z 01005KT 12/10 A3017 RMK A01 T01210101  RH  087%=      5-min Rain = 0
KWA1 110951Z 01005KT 12/10 A3017 RMK A01 T01210101  RH  087%=      5-min Rain = 0
KWA1 110952Z 02005KT 12/10 A3017 RMK A01 T01210101  RH  087%=      5-min Rain = 0
KWA1 110953Z 02005KT 12/10 A3017 RMK A01 T01210100  RH  087%=      5-min Rain = 0
KWA1 110954Z 02005KT 12/10 A3017 RMK A01 T01210101  RH  088%=      5-min Rain = 0
KWA1 110955Z 02005KT 12/10 A3017 RMK A01 T01200100  RH  088%=      5-min Rain = 0
KWA1 110956Z 02005KT 12/10 A3017 RMK A01 T01210100  RH  087%=      5-min Rain = 0
KWA1 110957Z 02005KT 12/10 A3017 RMK A01 T01210100  RH  087%=      5-min Rain = 0
KWA1 110958Z 02005KT 12/10 A3017 RMK A01 T01210100  RH  087%=      5-min Rain = 0
KWA1 110959Z 02005KT 12/10 A3017 RMK A01 T01210100  RH  087%=      5-min Rain = 0
KWA1 111000Z 02006KT 12/10 A3017 RMK A01 T01220100  RH  087%=      5-min Rain = 0
KWA1 111001Z 02006KT 12/10 A3017 RMK A01 T01220100  RH  087%=      5-min Rain = 0
KWA1 111002Z 02005KT 12/10 A3017 RMK A01 T01220101  RH  087%=      5-min Rain = 0
KWA1 111003Z 02005KT 12/10 A3017 RMK A01 T01220100  RH  086%=      5-min Rain = 0
KWA1 111004Z 02005KT 12/10 A3017 RMK A01 T01220100  RH  086%=      5-min Rain = 0
KWA1 111005Z 02005KT 12/10 A3017 RMK A01 T01230101  RH  086%=      5-min Rain = 0
KWA1 111006Z 02005KT 12/10 A3017 RMK A01 T01230101  RH  086%=      5-min Rain = 0
KWA1 111007Z 02005KT 12/10 A3017 RMK A01 T01230100  RH  086%=      5-min Rain = 0
KWA1 111008Z 02005KT 12/10 A3017 RMK A01 T01230100  RH  086%=      5-min Rain = 0
KWA1 111009Z 02005KT 12/10 A3017 RMK A01 T01230100  RH  086%=      5-min Rain = 0
KWA1 111010Z 02005KT 12/10 A3017 RMK A01 T01230100  RH  086%=      5-min Rain = 0
KWA1 111011Z 02005KT 12/10 A3017 RMK A01 T01230100  RH  086%=      5-min Rain = 0
KWA1 111012Z 02005KT 12/10 A3017 RMK A01 T01230100  RH  086%=      5-min Rain = 0
KWA1 111013Z 02005KT 12/10 A3017 RMK A01 T01230100  RH  086%=      5-min Rain = 0
KWA1 111014Z 02005KT 12/10 A3017 RMK A01 T01230100  RH  085%=      5-min Rain = 0
KWA1 111015Z 02005KT 12/10 A3017 RMK A01 T01240100  RH  085%=      5-min Rain = 0
KWA1 111016Z 02005KT 12/10 A3017 RMK A01 T01230100  RH  086%=      5-min Rain = 0
KWA1 111017Z 02005KT 12/10 A3017 RMK A01 T01230100  RH  086%=      5-min Rain = 0
KWA1 111018Z 02005KT 12/10 A3017 RMK A01 T01220100  RH  086%=      5-min Rain = 0
KWA1 111019Z 02005KT 12/10 A3017 RMK A01 T01230100  RH  086%=      5-min Rain = 0
KWA1 111020Z 02005KT 12/10 A3017 RMK A01 T01220099  RH  086%=      5-min Rain = 0
KWA1 111021Z 02005KT 12/10 A3017 RMK A01 T01220099  RH  086%=      5-min Rain = 0
KWA1 111022Z 02004KT 12/10 A3017 RMK A01 T01230099  RH  086%=      5-min Rain = 0
KWA1 111023Z 02004KT 12/10 A3017 RMK A01 T01220099  RH  086%=      5-min Rain = 0
KWA1 111024Z 02004KT 12/10 A3017 RMK A01 T01220099  RH  086%=      5-min Rain = 0
KWA1 111025Z 02005KT 12/10 A3017 RMK A01 T01220100  RH  086%=      5-min Rain = 0
KWA1 111026Z 02005KT 12/10 A3017 RMK A01 T01220100  RH  086%=      5-min Rain = 0
KWA1 111027Z 02005KT 12/10 A3017 RMK A01 T01230100  RH  086%=      5-min Rain = 0
KWA1 111028Z 02005KT 12/10 A3017 RMK A01 T01230099  RH  085%=      5-min Rain = 0
KWA1 111029Z 02005KT 12/10 A3017 RMK A01 T01230099  RH  086%=      5-min Rain = 0
KWA1 111030Z 02005KT 12/10 A3017 RMK A01 T01230100  RH  086%=      5-min Rain = 0
KWA1 111031Z 02005KT 12/10 A3017 RMK A01 T01230100  RH  085%=      5-min Rain = 0
KWA1 111032Z 02004KT 12/10 A3017 RMK A01 T01230100  RH  085%=      5-min Rain = 0
KWA1 111033Z 02005KT 12/10 A3017 RMK A01 T01220100  RH  086%=      5-min Rain = 0
KWA1 111034Z 02005KT 12/10 A3017 RMK A01 T01220100  RH  086%=      5-min Rain = 0
KWA1 111035Z 02005KT 12/10 A3017 RMK A01 T01220100  RH  086%=      5-min Rain = 0
KWA1 111036Z 02005KT 12/10 A3017 RMK A01 T01220100  RH  086%=      5-min Rain = 0
KWA1 111037Z 02005KT 12/10 A3017 RMK A01 T01220100  RH  086%=      5-min Rain = 0
KWA1 111038Z 02005KT 12/10 A3017 RMK A01 T01230100  RH  086%=      5-min Rain = 0
KWA1 111039Z 02005KT 12/10 A3017 RMK A01 T01230100  RH  086%=      5-min Rain = 0
KWA1 111040Z 02005KT 12/10 A3017 RMK A01 T01230100  RH  086%=      5-min Rain = 0
KWA1 111041Z 01004KT 12/10 A3017 RMK A01 T01230100  RH  086%=      5-min Rain = 0
KWA1 111042Z 01004KT 12/10 A3017 RMK A01 T01230101  RH  086%=      5-min Rain = 0
KWA1 111043Z 01004KT 12/10 A3017 RMK A01 T01230101  RH  086%=      5-min Rain = 0
KWA1 111044Z 01004KT 12/10 A3017 RMK A01 T01240100  RH  086%=      5-min Rain = 0
KWA1 111045Z 01004KT 12/10 A3017 RMK A01 T01230100  RH  086%=      5-min Rain = 0
KWA1 111046Z 00004KT 12/10 A3017 RMK A01 T01230099  RH  086%=      5-min Rain = 0
KWA1 111047Z 00004KT 12/10 A3017 RMK A01 T01230099  RH  086%=      5-min Rain = 0
KWA1 111048Z 00004KT 12/10 A3017 RMK A01 T01230099  RH  086%=      5-min Rain = 0
KWA1 111049Z 00004KT 12/10 A3017 RMK A01 T01230099  RH  086%=      5-min Rain = 0
KWA1 111050Z 00003KT 12/10 A3017 RMK A01 T01230099  RH  086%=      5-min Rain = 0
KWA1 111051Z 00003KT 12/10 A3017 RMK A01 T01230099  RH  086%=      5-min Rain = 0
KWA1 111052Z 35003KT 12/10 A3018 RMK A01 T01220099  RH  086%=      5-min Rain = 0
KWA1 111053Z 35003KT 12/10 A3018 RMK A01 T01220099  RH  086%=      5-min Rain = 0
KWA1 111054Z 35003KT 12/10 A3018 RMK A01 T01220099  RH  086%=      5-min Rain = 0
KWA1 111055Z 34003KT 12/10 A3018 RMK A01 T01220100  RH  086%=      5-min Rain = 0
KWA1 111056Z 34002KT 12/10 A3018 RMK A01 T01230101  RH  086%=      5-min Rain = 0
KWA1 111057Z 31002KT 12/10 A3018 RMK A01 T01220101  RH  087%=      5-min Rain = 0
KWA1 111058Z 30002KT 12/10 A3018 RMK A01 T01210100  RH  087%=      5-min Rain = 0
KWA1 111059Z 30002KT 12/10 A3018 RMK A01 T01200100  RH  087%=      5-min Rain = 0
KWA1 111100Z 30002KT 12/10 A3018 RMK A01 T01200100  RH  088%=      5-min Rain = 0
KWA1 111101Z 30003KT 12/10 A3018 RMK A01 T01190100  RH  089%=      5-min Rain = 0
KWA1 111102Z 31003KT 12/10 A3018 RMK A01 T01180101  RH  089%=      5-min Rain = 0
KWA1 111103Z 32003KT 12/10 A3018 RMK A01 T01180101  RH  089%=      5-min Rain = 0
KWA1 111104Z 31003KT 12/10 A3018 RMK A01 T01190101  RH  089%=      5-min Rain = 0
KWA1 111105Z 31002KT 12/10 A3018 RMK A01 T01200101  RH  089%=      5-min Rain = 0
KWA1 111106Z 30002KT 12/10 A3018 RMK A01 T01190101  RH  089%=      5-min Rain = 0
KWA1 111107Z 30002KT 12/10 A3018 RMK A01 T01180100  RH  089%=      5-min Rain = 0
KWA1 111108Z 30002KT 12/10 A3018 RMK A01 T01180101  RH  090%=      5-min Rain = 0
KWA1 111109Z 29002KT 12/10 A3018 RMK A01 T01170101  RH  090%=      5-min Rain = 0
KWA1 111110Z 29002KT 12/10 A3018 RMK A01 T01170102  RH  090%=      5-min Rain = 0
KWA1 111111Z 28002KT 12/10 A3018 RMK A01 T01170102  RH  090%=      5-min Rain = 0
KWA1 111112Z 29002KT 12/10 A3018 RMK A01 T01170102  RH  090%=      5-min Rain = 0
KWA1 111113Z 29002KT 12/10 A3018 RMK A01 T01180102  RH  090%=      5-min Rain = 0
KWA1 111114Z 29002KT 12/10 A3018 RMK A01 T01180102  RH  090%=      5-min Rain = 0
KWA1 111115Z 29002KT 12/10 A3018 RMK A01 T01190103  RH  090%=      5-min Rain = 0
KWA1 111116Z 30002KT 12/10 A3018 RMK A01 T01190103  RH  090%=      5-min Rain = 0
KWA1 111117Z 31002KT 12/10 A3018 RMK A01 T01200103  RH  090%=      5-min Rain = 0
KWA1 111118Z 33002KT 12/10 A3018 RMK A01 T01200103  RH  090%=      5-min Rain = 0
KWA1 111119Z 35002KT 12/10 A3018 RMK A01 T01200104  RH  089%=      5-min Rain = 0
KWA1 111120Z 35003KT 12/10 A3018 RMK A01 T01200103  RH  089%=      5-min Rain = 0
KWA1 111121Z 36003KT 12/10 A3018 RMK A01 T01200103  RH  089%=      5-min Rain = 0
KWA1 111122Z 00002KT 12/10 A3018 RMK A01 T01210103  RH  089%=      5-min Rain = 0
KWA1 111123Z 00002KT 12/10 A3018 RMK A01 T01210103  RH  089%=      5-min Rain = 0
KWA1 111124Z 00002KT 12/10 A3018 RMK A01 T01210103  RH  089%=      5-min Rain = 0
KWA1 111125Z 24001KT 12/10 A3018 RMK A01 T01210102  RH  088%=      5-min Rain = 0
KWA1 111126Z 22003KT 12/10 A3018 RMK A01 T01200102  RH  089%=      5-min Rain = 0
KWA1 111127Z 23003KT 12/10 A3018 RMK A01 T01190101  RH  089%=      5-min Rain = 0
KWA1 111128Z 24002KT 12/10 A3018 RMK A01 T01170100  RH  089%=      5-min Rain = 0
KWA1 111129Z 24002KT 12/10 A3018 RMK A01 T01160101  RH  090%=      5-min Rain = 0
KWA1 111130Z 24003KT 12/10 A3018 RMK A01 T01160101  RH  090%=      5-min Rain = 0
KWA1 111131Z 24004KT 12/10 A3018 RMK A01 T01150101  RH  091%=      5-min Rain = 0
KWA1 111132Z 24003KT 12/10 A3018 RMK A01 T01150101  RH  091%=      5-min Rain = 0
KWA1 111133Z 24003KT 12/10 A3018 RMK A01 T01150101  RH  091%=      5-min Rain = 0
KWA1 111134Z 24003KT 11/10 A3018 RMK A01 T01140101  RH  091%=      5-min Rain = 0
KWA1 111135Z 24003KT 11/10 A3018 RMK A01 T01140100  RH  092%=      5-min Rain = 0
KWA1 111136Z 24003KT 11/10 A3018 RMK A01 T01140101  RH  092%=      5-min Rain = 0
KWA1 111137Z 25003KT 11/10 A3018 RMK A01 T01130100  RH  092%=      5-min Rain = 0
KWA1 111138Z 25003KT 11/10 A3018 RMK A01 T01130100  RH  092%=      5-min Rain = 0
KWA1 111139Z 24004KT 11/10 A3018 RMK A01 T01130100  RH  092%=      5-min Rain = 0
KWA1 111140Z 23004KT 11/10 A3018 RMK A01 T01120100  RH  092%=      5-min Rain = 0
KWA1 111141Z 23004KT 11/10 A3018 RMK A01 T01120100  RH  092%=      5-min Rain = 0
KWA1 111142Z 24004KT 11/10 A3018 RMK A01 T01120100  RH  092%=      5-min Rain = 0
KWA1 111143Z 23004KT 11/10 A3018 RMK A01 T01120100  RH  092%=      5-min Rain = 0
KWA1 111144Z 23004KT 11/10 A3018 RMK A01 T01110099  RH  092%=      5-min Rain = 0
KWA1 111145Z 23004KT 11/10 A3018 RMK A01 T01120100  RH  092%=      5-min Rain = 0
KWA1 111146Z 23003KT 11/10 A3018 RMK A01 T01120100  RH  092%=      5-min Rain = 0
KWA1 111147Z 23003KT 11/10 A3018 RMK A01 T01110099  RH  092%=      5-min Rain = 0
KWA1 111148Z 23003KT 11/10 A3018 RMK A01 T01110099  RH  092%=      5-min Rain = 0
KWA1 111149Z 23003KT 11/10 A3018 RMK A01 T01110099  RH  092%=      5-min Rain = 0
KWA1 111150Z 23003KT 11/10 A3018 RMK A01 T01110100  RH  093%=      5-min Rain = 0
KWA1 111151Z 23003KT 11/10 A3018 RMK A01 T01110100  RH  093%=      5-min Rain = 0
KWA1 111152Z 23003KT 11/10 A3018 RMK A01 T01110100  RH  093%=      5-min Rain = 0
KWA1 111153Z 23003KT 11/10 A3018 RMK A01 T01110100  RH  093%=      5-min Rain = 0
KWA1 111154Z 23003KT 11/10 A3018 RMK A01 T01110100  RH  093%=      5-min Rain = 0
KWA1 111155Z 23003KT 11/10 A3018 RMK A01 T01110100  RH  093%=      5-min Rain = 0
KWA1 111156Z 23003KT 11/10 A3018 RMK A01 T01110100  RH  093%=      5-min Rain = 0
KWA1 111157Z 23003KT 11/10 A3018 RMK A01 T01110100  RH  093%=      5-min Rain = 0
KWA1 111158Z 23003KT 11/10 A3018 RMK A01 T01110100  RH  093%=      5-min Rain = 0
KWA1 111159Z 23003KT 11/10 A3018 RMK A01 T01110100  RH  093%=      5-min Rain = 0
KWA1 111200Z 23003KT 11/10 A3018 RMK A01 T01110100  RH  093%=      5-min Rain = 0
KWA1 111201Z 23003KT 11/10 A3018 RMK A01 T01110100  RH  093%=      5-min Rain = 0
KWA1 111202Z 23002KT 11/10 A3018 RMK A01 T01110099  RH  093%=      5-min Rain = 0
KWA1 111203Z 23002KT 11/10 A3018 RMK A01 T01110099  RH  093%=      5-min Rain = 0
KWA1 111204Z 23002KT 11/10 A3018 RMK A01 T01110099  RH  093%=      5-min Rain = 0
KWA1 111205Z 23002KT 11/10 A3018 RMK A01 T01100099  RH  093%=      5-min Rain = 0
KWA1 111206Z 23002KT 11/10 A3018 RMK A01 T01110100  RH  093%=      5-min Rain = 0
KWA1 111207Z 23002KT 11/10 A3018 RMK A01 T01110100  RH  093%=      5-min Rain = 0
KWA1 111208Z 23002KT 11/10 A3018 RMK A01 T01110100  RH  093%=      5-min Rain = 0
KWA1 111209Z 23001KT 11/10 A3018 RMK A01 T01110101  RH  093%=      5-min Rain = 0
KWA1 111210Z 22002KT 11/10 A3019 RMK A01 T01110101  RH  093%=      5-min Rain = 0
KWA1 111211Z 22002KT 11/10 A3019 RMK A01 T01120101  RH  093%=      5-min Rain = 0
KWA1 111212Z 22002KT 11/10 A3019 RMK A01 T01120101  RH  093%=      5-min Rain = 0
KWA1 111213Z 22002KT 11/10 A3019 RMK A01 T01130101  RH  093%=      5-min Rain = 0
KWA1 111214Z 22002KT 11/10 A3019 RMK A01 T01130101  RH  092%=      5-min Rain = 0
KWA1 111215Z 22001KT 11/10 A3019 RMK A01 T01130101  RH  092%=      5-min Rain = 0
KWA1 111216Z 23001KT 11/10 A3019 RMK A01 T01130101  RH  092%=      5-min Rain = 0
KWA1 111217Z 23001KT 11/10 A3019 RMK A01 T01130101  RH  092%=      5-min Rain = 0
KWA1 111218Z 23001KT 11/10 A3019 RMK A01 T01130100  RH  092%=      5-min Rain = 0
KWA1 111219Z 23001KT 11/10 A3019 RMK A01 T01140100  RH  092%=      5-min Rain = 0
KWA1 111220Z 23001KT 11/10 A3019 RMK A01 T01130100  RH  092%=      5-min Rain = 0
KWA1 111221Z 23000KT 11/10 A3019 RMK A01 T01140100  RH  092%=      5-min Rain = 0
KWA1 111222Z 00000KT 11/10 A3019 RMK A01 T01140100  RH  092%=      5-min Rain = 0
KWA1 111223Z 23000KT 11/10 A3019 RMK A01 T01140100  RH  091%=      5-min Rain = 0
KWA1 111224Z 23000KT 11/10 A3019 RMK A01 T01140100  RH  091%=      5-min Rain = 0
KWA1 111225Z 23000KT 11/10 A3019 RMK A01 T01140100  RH  091%=      5-min Rain = 0
KWA1 111226Z 00000KT 12/10 A3019 RMK A01 T01150102  RH  091%=      5-min Rain = 0
KWA1 111227Z 00000KT 12/10 A3019 RMK A01 T01160102  RH  091%=      5-min Rain = 0
KWA1 111228Z 00000KT 12/10 A3019 RMK A01 T01160102  RH  091%=      5-min Rain = 0
KWA1 111229Z 00000KT 12/10 A3019 RMK A01 T01160101  RH  091%=      5-min Rain = 0
KWA1 111230Z 23000KT 12/10 A3019 RMK A01 T01160101  RH  091%=      5-min Rain = 0
KWA1 111231Z 23000KT 12/10 A3019 RMK A01 T01150101  RH  091%=      5-min Rain = 0
KWA1 111232Z 00000KT 12/10 A3019 RMK A01 T01150100  RH  091%=      5-min Rain = 0
KWA1 111233Z 00000KT 12/10 A3019 RMK A01 T01150100  RH  091%=      5-min Rain = 0
KWA1 111234Z 00000KT 12/10 A3019 RMK A01 T01150100  RH  091%=      5-min Rain = 0
KWA1 111235Z 23000KT 11/10 A3019 RMK A01 T01140100  RH  091%=      5-min Rain = 0
KWA1 111236Z 00000KT 11/10 A3019 RMK A01 T01140100  RH  091%=      5-min Rain = 0
KWA1 111237Z 00000KT 11/10 A3019 RMK A01 T01140100  RH  091%=      5-min Rain = 0
KWA1 111238Z 00000KT 11/10 A3019 RMK A01 T01140100  RH  091%=      5-min Rain = 0
KWA1 111239Z 00000KT 12/10 A3019 RMK A01 T01150101  RH  091%=      5-min Rain = 0
KWA1 111240Z 00000KT 12/10 A3019 RMK A01 T01150101  RH  091%=      5-min Rain = 0
KWA1 111241Z 00000KT 12/10 A3019 RMK A01 T01150101  RH  091%=      5-min Rain = 0
KWA1 111242Z 00000KT 12/10 A3019 RMK A01 T01160101  RH  091%=      5-min Rain = 0
KWA1 111243Z 00000KT 12/10 A3019 RMK A01 T01160101  RH  090%=      5-min Rain = 0
KWA1 111244Z 00000KT 12/10 A3019 RMK A01 T01160100  RH  090%=      5-min Rain = 0
KWA1 111245Z 00000KT 12/10 A3019 RMK A01 T01170101  RH  090%=      5-min Rain = 0
KWA1 111246Z 00000KT 12/10 A3019 RMK A01 T01170101  RH  090%=      5-min Rain = 0
KWA1 111247Z 00000KT 12/10 A3019 RMK A01 T01180101  RH  090%=      5-min Rain = 0
KWA1 111248Z 00000KT 12/10 A3019 RMK A01 T01190102  RH  090%=      5-min Rain = 0
KWA1 111249Z 00000KT 12/10 A3019 RMK A01 T01190102  RH  090%=      5-min Rain = 0
KWA1 111250Z 00000KT 12/10 A302 RMK A01 T01200103  RH  089%=      5-min Rain = 0
KWA1 111251Z 00000KT 12/10 A302 RMK A01 T01210103  RH  089%=      5-min Rain = 0
KWA1 111252Z 00000KT 12/10 A302 RMK A01 T01210103  RH  088%=      5-min Rain = 0
KWA1 111253Z 00000KT 12/10 A302 RMK A01 T01220103  RH  088%=      5-min Rain = 0
KWA1 111254Z 00000KT 12/10 A302 RMK A01 T01230103  RH  088%=      5-min Rain = 0
KWA1 111255Z 00000KT 12/10 A302 RMK A01 T01230103  RH  087%=      5-min Rain = 0
KWA1 111256Z 00000KT 12/10 A302 RMK A01 T01240104  RH  087%=      5-min Rain = 0
KWA1 111257Z 23000KT 13/11 A302 RMK A01 T01250105  RH  088%=      5-min Rain = 0
KWA1 111258Z 23001KT 13/11 A302 RMK A01 T01260107  RH  088%=      5-min Rain = 0
KWA1 111259Z 23001KT 13/11 A302 RMK A01 T01270107  RH  088%=      5-min Rain = 0
KWA1 111300Z 23001KT 13/11 A302 RMK A01 T01270107  RH  088%=      5-min Rain = 0
KWA1 111301Z 23001KT 13/11 A302 RMK A01 T01270108  RH  088%=      5-min Rain = 0
KWA1 111302Z 23001KT 13/11 A302 RMK A01 T01280108  RH  088%=      5-min Rain = 0
KWA1 111303Z 23001KT 13/11 A302 RMK A01 T01280109  RH  088%=      5-min Rain = 0
KWA1 111304Z 22001KT 13/11 A302 RMK A01 T01280109  RH  088%=      5-min Rain = 0
KWA1 111305Z 22001KT 13/11 A302 RMK A01 T01270109  RH  089%=      5-min Rain = 0
KWA1 111306Z 22001KT 13/11 A302 RMK A01 T01270109  RH  089%=      5-min Rain = 0
KWA1 111307Z 22000KT 13/11 A302 RMK A01 T01270109  RH  089%=      5-min Rain = 0
KWA1 111308Z 21000KT 13/11 A302 RMK A01 T01280109  RH  089%=      5-min Rain = 0
KWA1 111309Z 21001KT 13/11 A302 RMK A01 T01280110  RH  089%=      5-min Rain = 0
KWA1 111310Z 21001KT 13/11 A302 RMK A01 T01300111  RH  089%=      5-min Rain = 0
KWA1 111311Z 21001KT 13/11 A302 RMK A01 T01300111  RH  088%=      5-min Rain = 0
KWA1 111312Z 21001KT 13/11 A302 RMK A01 T01310111  RH  088%=      5-min Rain = 0
KWA1 111313Z 21001KT 13/11 A302 RMK A01 T01310111  RH  087%=      5-min Rain = 0
KWA1 111314Z 21001KT 13/11 A302 RMK A01 T01320111  RH  087%=      5-min Rain = 0
KWA1 111315Z 21001KT 13/11 A302 RMK A01 T01330113  RH  088%=      5-min Rain = 0
KWA1 111316Z 21001KT 13/11 A302 RMK A01 T01340114  RH  088%=      5-min Rain = 0
KWA1 111317Z 21001KT 13/11 A302 RMK A01 T01340114  RH  088%=      5-min Rain = 0
KWA1 111318Z 21001KT 14/12 A302 RMK A01 T01350116  RH  089%=      5-min Rain = 0
KWA1 111319Z 21001KT 14/12 A302 RMK A01 T01350116  RH  088%=      5-min Rain = 0
KWA1 111320Z 21001KT 14/12 A302 RMK A01 T01360117  RH  089%=      5-min Rain = 0
KWA1 111321Z 21001KT 14/12 A302 RMK A01 T01350117  RH  089%=      5-min Rain = 0
KWA1 111322Z 21001KT 14/12 A302 RMK A01 T01360118  RH  089%=      5-min Rain = 0
KWA1 111323Z 21001KT 14/12 A302 RMK A01 T01370119  RH  089%=      5-min Rain = 0
KWA1 111324Z 21001KT 14/12 A302 RMK A01 T01380120  RH  089%=      5-min Rain = 0
KWA1 111325Z 21001KT 14/12 A302 RMK A01 T01380119  RH  088%=      5-min Rain = 0
KWA1 111326Z 21001KT 14/12 A302 RMK A01 T01390120  RH  088%=      5-min Rain = 0
KWA1 111327Z 21001KT 14/12 A302 RMK A01 T01400121  RH  088%=      5-min Rain = 0
KWA1 111328Z 21001KT 14/12 A302 RMK A01 T01410121  RH  087%=      5-min Rain = 0
KWA1 111329Z 21001KT 14/12 A302 RMK A01 T01420122  RH  088%=      5-min Rain = 0
KWA1 111330Z 21001KT 14/12 A302 RMK A01 T01430123  RH  088%=      5-min Rain = 0
KWA1 111331Z 21001KT 14/12 A302 RMK A01 T01430124  RH  088%=      5-min Rain = 0
KWA1 111332Z 21001KT 15/12 A302 RMK A01 T01450123  RH  086%=      5-min Rain = 0
KWA1 111333Z 21001KT 15/12 A302 RMK A01 T01460120  RH  085%=      5-min Rain = 0
KWA1 111334Z 21000KT 15/12 A302 RMK A01 T01470121  RH  084%=      5-min Rain = 0
KWA1 111335Z 21001KT 15/12 A302 RMK A01 T01470121  RH  084%=      5-min Rain = 0
KWA1 111336Z 21001KT 15/12 A302 RMK A01 T01480121  RH  084%=      5-min Rain = 0
KWA1 111337Z 21001KT 15/12 A302 RMK A01 T01490119  RH  082%=      5-min Rain = 0
KWA1 111338Z 21001KT 15/12 A302 RMK A01 T01500118  RH  081%=      5-min Rain = 0
KWA1 111339Z 21001KT 15/12 A302 RMK A01 T01500121  RH  083%=      5-min Rain = 0
KWA1 111340Z 21001KT 15/12 A302 RMK A01 T01510118  RH  081%=      5-min Rain = 0
KWA1 111341Z 21000KT 15/12 A302 RMK A01 T01520115  RH  079%=      5-min Rain = 0
KWA1 111342Z 22000KT 15/12 A302 RMK A01 T01530119  RH  080%=      5-min Rain = 0
KWA1 111343Z 22000KT 15/12 A302 RMK A01 T01530119  RH  080%=      5-min Rain = 0
KWA1 111344Z 22001KT 15/12 A302 RMK A01 T01540119  RH  080%=      5-min Rain = 0
KWA1 111345Z 21000KT 16/12 A302 RMK A01 T01550119  RH  079%=      5-min Rain = 0
KWA1 111346Z 22001KT 16/12 A302 RMK A01 T01550121  RH  080%=      5-min Rain = 0
KWA1 111347Z 24001KT 16/12 A302 RMK A01 T01560120  RH  079%=      5-min Rain = 0
KWA1 111348Z 25001KT 16/12 A302 RMK A01 T01570122  RH  080%=      5-min Rain = 0
KWA1 111349Z 25001KT 16/12 A302 RMK A01 T01580120  RH  078%=      5-min Rain = 0
KWA1 111350Z 26001KT 16/12 A302 RMK A01 T01580117  RH  077%=      5-min Rain = 0
KWA1 111351Z 26001KT 16/12 A302 RMK A01 T01590117  RH  076%=      5-min Rain = 0
KWA1 111352Z 26001KT 16/12 A302 RMK A01 T01590116  RH  075%=      5-min Rain = 0
KWA1 111353Z 26000KT 16/11 A302 RMK A01 T01600113  RH  074%=      5-min Rain = 0
KWA1 111354Z 00000KT 16/11 A302 RMK A01 T01600113  RH  074%=      5-min Rain = 0
KWA1 111355Z 00000KT 16/12 A302 RMK A01 T01620115  RH  074%=      5-min Rain = 0
KWA1 111356Z 00000KT 16/12 A302 RMK A01 T01640116  RH  073%=      5-min Rain = 0
KWA1 111357Z 00000KT 17/12 A3021 RMK A01 T01650116  RH  073%=      5-min Rain = 0
KWA1 111358Z 01000KT 17/12 A3021 RMK A01 T01680118  RH  073%=      5-min Rain = 0
KWA1 111359Z 01000KT 17/12 A3021 RMK A01 T01700117  RH  071%=      5-min Rain = 0
KWA1 111400Z 01001KT 17/12 A3021 RMK A01 T01710116  RH  070%=      5-min Rain = 0
KWA1 111401Z 03000KT 17/12 A3021 RMK A01 T01720115  RH  069%=      5-min Rain = 0
KWA1 111402Z 03000KT 17/12 A3021 RMK A01 T01740116  RH  069%=      5-min Rain = 0
KWA1 111403Z 00000KT 18/12 A3021 RMK A01 T01750117  RH  069%=      5-min Rain = 0
KWA1 111404Z 00000KT 18/12 A3021 RMK A01 T01770120  RH  069%=      5-min Rain = 0
KWA1 111405Z 03000KT 18/12 A3021 RMK A01 T01800121  RH  068%=      5-min Rain = 0
KWA1 111406Z 03000KT 18/12 A3021 RMK A01 T01810118  RH  067%=      5-min Rain = 0
KWA1 111407Z 36000KT 18/12 A3021 RMK A01 T01810119  RH  067%=      5-min Rain = 0
KWA1 111408Z 36000KT 18/12 A3021 RMK A01 T01800118  RH  067%=      5-min Rain = 0
KWA1 111409Z 07000KT 18/12 A3021 RMK A01 T01800119  RH  068%=      5-min Rain = 0
KWA1 111410Z 03001KT 18/12 A3021 RMK A01 T01800120  RH  068%=      5-min Rain = 0
KWA1 111411Z 05001KT 18/12 A3021 RMK A01 T01800121  RH  068%=      5-min Rain = 0
KWA1 111412Z 05001KT 18/12 A302 RMK A01 T01810119  RH  067%=      5-min Rain = 0
KWA1 111413Z 03000KT 18/12 A302 RMK A01 T01810120  RH  068%=      5-min Rain = 0
KWA1 111414Z 01000KT 18/12 A302 RMK A01 T01830121  RH  067%=      5-min Rain = 0
KWA1 111415Z 36000KT 19/12 A302 RMK A01 T01850122  RH  066%=      5-min Rain = 0
KWA1 111416Z 06001KT 19/12 A302 RMK A01 T01860123  RH  067%=      5-min Rain = 0
KWA1 111417Z 06001KT 19/12 A302 RMK A01 T01860121  RH  066%=      5-min Rain = 0
KWA1 111418Z 02001KT 19/12 A3021 RMK A01 T01860122  RH  066%=      5-min Rain = 0
KWA1 111419Z 02001KT 19/12 A3021 RMK A01 T01860121  RH  066%=      5-min Rain = 0
KWA1 111420Z 02001KT 19/12 A3021 RMK A01 T01860120  RH  065%=      5-min Rain = 0
KWA1 111421Z 03002KT 19/12 A3021 RMK A01 T01860123  RH  067%=      5-min Rain = 0
KWA1 111422Z 03001KT 19/12 A3021 RMK A01 T01870120  RH  065%=      5-min Rain = 0
KWA1 111423Z 04002KT 19/12 A3021 RMK A01 T01870121  RH  065%=      5-min Rain = 0
KWA1 111424Z 03002KT 19/12 A3021 RMK A01 T01880120  RH  065%=      5-min Rain = 0
KWA1 111425Z 35002KT 19/12 A3021 RMK A01 T01880123  RH  066%=      5-min Rain = 0
KWA1 111426Z 35001KT 19/12 A3021 RMK A01 T01880124  RH  066%=      5-min Rain = 0
KWA1 111427Z 34001KT 19/13 A3021 RMK A01 T01880125  RH  067%=      5-min Rain = 0
KWA1 111428Z 34001KT 19/12 A3021 RMK A01 T01890124  RH  066%=      5-min Rain = 0
KWA1 111429Z 35000KT 19/13 A3021 RMK A01 T01890126  RH  067%=      5-min Rain = 0
KWA1 111430Z 35001KT 19/12 A3021 RMK A01 T01890123  RH  065%=      5-min Rain = 0
KWA1 111431Z 36001KT 19/12 A3021 RMK A01 T01890123  RH  065%=      5-min Rain = 0
KWA1 111432Z 35001KT 19/12 A3021 RMK A01 T01890122  RH  065%=      5-min Rain = 0
KWA1 111433Z 35001KT 19/12 A3021 RMK A01 T01900123  RH  065%=      5-min Rain = 0
KWA1 111434Z 01002KT 19/12 A3021 RMK A01 T01910122  RH  064%=      5-min Rain = 0
KWA1 111435Z 01002KT 19/12 A3021 RMK A01 T01920122  RH  064%=      5-min Rain = 0
KWA1 111436Z 01002KT 19/12 A3021 RMK A01 T01920123  RH  064%=      5-min Rain = 0
KWA1 111437Z 35002KT 19/12 A3021 RMK A01 T01920121  RH  063%=      5-min Rain = 0
KWA1 111438Z 03002KT 19/12 A3021 RMK A01 T01930124  RH  064%=      5-min Rain = 0
KWA1 111439Z 01002KT 20/12 A3021 RMK A01 T01950120  RH  062%=      5-min Rain = 0
KWA1 111440Z 01002KT 20/12 A3021 RMK A01 T01950117  RH  061%=      5-min Rain = 0
KWA1 111441Z 03002KT 19/12 A3021 RMK A01 T01930116  RH  061%=      5-min Rain = 0
KWA1 111442Z 03001KT 19/12 A3021 RMK A01 T01940120  RH  062%=      5-min Rain = 0
KWA1 111443Z 06001KT 20/12 A3021 RMK A01 T01950119  RH  062%=      5-min Rain = 0
KWA1 111444Z 06001KT 20/12 A3021 RMK A01 T01960117  RH  060%=      5-min Rain = 0
KWA1 111445Z 05002KT 20/12 A3021 RMK A01 T01960118  RH  060%=      5-min Rain = 0
KWA1 111446Z 05002KT 20/12 A3021 RMK A01 T01970117  RH  060%=      5-min Rain = 0
KWA1 111447Z 04001KT 20/12 A3021 RMK A01 T01970119  RH  061%=      5-min Rain = 0
KWA1 111448Z 07001KT 20/12 A3021 RMK A01 T01970120  RH  061%=      5-min Rain = 0
KWA1 111449Z 04001KT 20/12 A3021 RMK A01 T01990123  RH  062%=      5-min Rain = 0
KWA1 111450Z 04002KT 20/13 A3021 RMK A01 T02000125  RH  062%=      5-min Rain = 0
KWA1 111451Z 04002KT 20/12 A3021 RMK A01 T02010124  RH  061%=      5-min Rain = 0
KWA1 111452Z 05002KT 20/12 A3021 RMK A01 T02010122  RH  060%=      5-min Rain = 0
KWA1 111453Z 05001KT 20/12 A3021 RMK A01 T02010122  RH  060%=      5-min Rain = 0
KWA1 111454Z 05001KT 20/12 A3021 RMK A01 T02020122  RH  060%=      5-min Rain = 0
KWA1 111455Z 04001KT 20/12 A3021 RMK A01 T02020120  RH  059%=      5-min Rain = 0
KWA1 111456Z 01000KT 20/12 A3021 RMK A01 T02020121  RH  060%=      5-min Rain = 0
KWA1 111457Z 32000KT 20/12 A3021 RMK A01 T02030123  RH  060%=      5-min Rain = 0
KWA1 111458Z 06001KT 20/13 A3021 RMK A01 T02040126  RH  061%=      5-min Rain = 0
KWA1 111459Z 06001KT 21/12 A3021 RMK A01 T02050123  RH  059%=      5-min Rain = 0
KWA1 111500Z 05001KT 21/12 A3021 RMK A01 T02050120  RH  058%=      5-min Rain = 0
KWA1 111501Z 04002KT 20/12 A3021 RMK A01 T02040121  RH  059%=      5-min Rain = 0
KWA1 111502Z 03003KT 21/12 A3021 RMK A01 T02050123  RH  059%=      5-min Rain = 0
KWA1 111503Z 03002KT 21/12 A3021 RMK A01 T02050122  RH  059%=      5-min Rain = 0
KWA1 111504Z 03001KT 20/12 A3021 RMK A01 T02040121  RH  059%=      5-min Rain = 0
KWA1 111505Z 03001KT 20/12 A3021 RMK A01 T02040122  RH  060%=      5-min Rain = 0
KWA1 111506Z 04001KT 20/12 A3021 RMK A01 T02040120  RH  059%=      5-min Rain = 0
KWA1 111507Z 04001KT 21/12 A3021 RMK A01 T02050122  RH  059%=      5-min Rain = 0
KWA1 111508Z 04001KT 21/12 A3021 RMK A01 T02050124  RH  060%=      5-min Rain = 0
KWA1 111509Z 06001KT 21/12 A3021 RMK A01 T02060124  RH  059%=      5-min Rain = 0
KWA1 111510Z 04001KT 21/12 A3021 RMK A01 T02070124  RH  059%=      5-min Rain = 0
KWA1 111511Z 02002KT 21/12 A3021 RMK A01 T02080122  RH  058%=      5-min Rain = 0
KWA1 111512Z 01001KT 21/12 A3021 RMK A01 T02080121  RH  058%=      5-min Rain = 0
KWA1 111513Z 04000KT 21/12 A3021 RMK A01 T02080120  RH  057%=      5-min Rain = 0
KWA1 111514Z 03001KT 21/12 A3021 RMK A01 T02090121  RH  057%=      5-min Rain = 0
KWA1 111515Z 02002KT 21/12 A3021 RMK A01 T02100122  RH  057%=      5-min Rain = 0
KWA1 111516Z 03001KT 21/13 A3021 RMK A01 T02100126  RH  059%=      5-min Rain = 0
KWA1 111517Z 36001KT 21/13 A3021 RMK A01 T02120127  RH  058%=      5-min Rain = 0
KWA1 111518Z 35001KT 21/12 A3021 RMK A01 T02120122  RH  056%=      5-min Rain = 0
KWA1 111519Z 34001KT 21/12 A3021 RMK A01 T02120123  RH  057%=      5-min Rain = 0
KWA1 111520Z 34001KT 21/12 A3021 RMK A01 T02120123  RH  057%=      5-min Rain = 0
KWA1 111521Z 33001KT 21/12 A3021 RMK A01 T02130123  RH  056%=      5-min Rain = 0
KWA1 111522Z 33001KT 21/12 A3021 RMK A01 T02130122  RH  056%=      5-min Rain = 0
KWA1 111523Z 00000KT 21/12 A3021 RMK A01 T02130121  RH  056%=      5-min Rain = 0
KWA1 111524Z 04001KT 21/13 A3021 RMK A01 T02140125  RH  057%=      5-min Rain = 0
KWA1 111525Z 07001KT 22/12 A3021 RMK A01 T02150123  RH  056%=      5-min Rain = 0
KWA1 111526Z 09001KT 22/12 A3021 RMK A01 T02150122  RH  055%=      5-min Rain = 0
KWA1 111527Z 04001KT 22/13 A3021 RMK A01 T02150127  RH  057%=      5-min Rain = 0
KWA1 111528Z 04001KT 22/13 A3021 RMK A01 T02170129  RH  057%=      5-min Rain = 0
KWA1 111529Z 02002KT 22/13 A3021 RMK A01 T02190128  RH  056%=      5-min Rain = 0
KWA1 111530Z 10000KT 22/13 A3021 RMK A01 T02200127  RH  056%=      5-min Rain = 0
KWA1 111531Z 09000KT 22/13 A3021 RMK A01 T02200125  RH  055%=      5-min Rain = 0
KWA1 111532Z 01001KT 22/13 A3021 RMK A01 T02210128  RH  056%=      5-min Rain = 0
KWA1 111533Z 02002KT 22/13 A3021 RMK A01 T02220128  RH  055%=      5-min Rain = 0
KWA1 111534Z 01001KT 22/13 A3021 RMK A01 T02220126  RH  054%=      5-min Rain = 0
KWA1 111535Z 06001KT 22/12 A3021 RMK A01 T02220124  RH  054%=      5-min Rain = 0
KWA1 111536Z 13000KT 22/12 A3021 RMK A01 T02230124  RH  054%=      5-min Rain = 0
KWA1 111537Z 15001KT 22/12 A3021 RMK A01 T02230124  RH  053%=      5-min Rain = 0
KWA1 111538Z 14001KT 22/13 A3021 RMK A01 T02240130  RH  055%=      5-min Rain = 0
KWA1 111539Z 14001KT 23/13 A3021 RMK A01 T02260130  RH  055%=      5-min Rain = 0
KWA1 111540Z 10000KT 23/13 A3021 RMK A01 T02290133  RH  055%=      5-min Rain = 0
KWA1 111541Z 10000KT 23/13 A3021 RMK A01 T02330133  RH  053%=      5-min Rain = 0
KWA1 111542Z 01000KT 24/13 A3021 RMK A01 T02360133  RH  052%=      5-min Rain = 0
KWA1 111543Z 22000KT 24/13 A3021 RMK A01 T02380132  RH  051%=      5-min Rain = 0
KWA1 111544Z 25000KT 24/13 A3021 RMK A01 T02370128  RH  050%=      5-min Rain = 0
KWA1 111545Z 31001KT 24/13 A3021 RMK A01 T02350132  RH  053%=      5-min Rain = 0
KWA1 111546Z 32001KT 23/13 A3021 RMK A01 T02340131  RH  052%=      5-min Rain = 0
KWA1 111547Z 33001KT 23/13 A3021 RMK A01 T02340129  RH  052%=      5-min Rain = 0
KWA1 111548Z 33000KT 23/13 A3021 RMK A01 T02340133  RH  053%=      5-min Rain = 0
KWA1 111549Z 33001KT 24/13 A3021 RMK A01 T02350129  RH  052%=      5-min Rain = 0
KWA1 111550Z 35001KT 23/13 A3021 RMK A01 T02330127  RH  051%=      5-min Rain = 0
KWA1 111551Z 33001KT 23/13 A3021 RMK A01 T02320129  RH  052%=      5-min Rain = 0
KWA1 111552Z 33001KT 23/13 A3021 RMK A01 T02320129  RH  052%=      5-min Rain = 0
KWA1 111553Z 34001KT 23/13 A3021 RMK A01 T02320133  RH  054%=      5-min Rain = 0
KWA1 111554Z 31001KT 23/13 A3021 RMK A01 T02330130  RH  052%=      5-min Rain = 0
KWA1 111555Z 31001KT 23/13 A3021 RMK A01 T02330127  RH  051%=      5-min Rain = 0
KWA1 111556Z 30002KT 23/13 A3021 RMK A01 T02330130  RH  052%=      5-min Rain = 0
KWA1 111557Z 31001KT 23/13 A3021 RMK A01 T02330130  RH  052%=      5-min Rain = 0
KWA1 111558Z 30002KT 23/13 A3021 RMK A01 T02330130  RH  052%=      5-min Rain = 0
KWA1 111559Z 30002KT 23/13 A3021 RMK A01 T02320129  RH  052%=      5-min Rain = 0
KWA1 111600Z 29001KT 23/13 A3021 RMK A01 T02310130  RH  053%=      5-min Rain = 0
KWA1 111601Z 30002KT 23/13 A3021 RMK A01 T02320130  RH  053%=      5-min Rain = 0
KWA1 111602Z 31002KT 23/13 A3021 RMK A01 T02320128  RH  052%=      5-min Rain = 0
KWA1 111603Z 30003KT 23/13 A3021 RMK A01 T02320130  RH  053%=      5-min Rain = 0
KWA1 111604Z 30003KT 23/13 A3021 RMK A01 T02320131  RH  053%=      5-min Rain = 0
KWA1 111605Z 31003KT 23/13 A3021 RMK A01 T02320131  RH  053%=      5-min Rain = 0
KWA1 111606Z 29002KT 23/13 A3021 RMK A01 T02330129  RH  052%=      5-min Rain = 0
KWA1 111607Z 32002KT 23/13 A3021 RMK A01 T02330129  RH  052%=      5-min Rain = 0
KWA1 111608Z 34002KT 23/13 A3021 RMK A01 T02320130  RH  053%=      5-min Rain = 0
KWA1 111609Z 35000KT 23/13 A3021 RMK A01 T02330130  RH  052%=      5-min Rain = 0
KWA1 111610Z 31001KT 24/13 A3021 RMK A01 T02350127  RH  051%=      5-min Rain = 0
KWA1 111611Z 35001KT 24/13 A3021 RMK A01 T02360126  RH  050%=      5-min Rain = 0
KWA1 111612Z 06001KT 24/13 A3021 RMK A01 T02370126  RH  050%=      5-min Rain = 0
KWA1 111613Z 06001KT 24/13 A3021 RMK A01 T02370127  RH  050%=      5-min Rain = 0
KWA1 111614Z 04000KT 24/13 A3021 RMK A01 T02380130  RH  051%=      5-min Rain = 0
KWA1 111615Z 04000KT 24/13 A3021 RMK A01 T02390131  RH  051%=      5-min Rain = 0
KWA1 111616Z 22001KT 24/13 A3021 RMK A01 T02410128  RH  049%=      5-min Rain = 0
KWA1 111617Z 22002KT 24/13 A3021 RMK A01 T02420129  RH  049%=      5-min Rain = 0
KWA1 111618Z 20002KT 24/13 A3021 RMK A01 T02420128  RH  049%=      5-min Rain = 0
KWA1 111619Z 19002KT 24/13 A3021 RMK A01 T02410127  RH  049%=      5-min Rain = 0
KWA1 111620Z 18002KT 24/13 A3021 RMK A01 T02400129  RH  050%=      5-min Rain = 0
KWA1 111621Z 21002KT 24/13 A3021 RMK A01 T02410130  RH  050%=      5-min Rain = 0
KWA1 111622Z 21001KT 24/13 A3021 RMK A01 T02410128  RH  049%=      5-min Rain = 0
KWA1 111623Z 17001KT 24/13 A3021 RMK A01 T02400130  RH  050%=      5-min Rain = 0
KWA1 111624Z 17002KT 24/13 A3021 RMK A01 T02410131  RH  050%=      5-min Rain = 0
KWA1 111625Z 21002KT 24/13 A3021 RMK A01 T02420125  RH  048%=      5-min Rain = 0
KWA1 111626Z 24001KT 24/12 A3021 RMK A01 T02400124  RH  048%=      5-min Rain = 0
KWA1 111627Z 26001KT 24/13 A302 RMK A01 T02390127  RH  049%=      5-min Rain = 0
KWA1 111628Z 22001KT 24/12 A302 RMK A01 T02390124  RH  048%=      5-min Rain = 0
KWA1 111629Z 18001KT 24/12 A302 RMK A01 T02400123  RH  048%=      5-min Rain = 0
KWA1 111630Z 20001KT 24/12 A302 RMK A01 T02410123  RH  048%=      5-min Rain = 0
KWA1 111631Z 21001KT 24/13 A302 RMK A01 T02420126  RH  048%=      5-min Rain = 0
KWA1 111632Z 22002KT 24/13 A302 RMK A01 T02440132  RH  050%=      5-min Rain = 0
KWA1 111633Z 30001KT 25/13 A302 RMK A01 T02450131  RH  049%=      5-min Rain = 0
KWA1 111634Z 36003KT 25/13 A302 RMK A01 T02460131  RH  049%=      5-min Rain = 0
KWA1 111635Z 34003KT 25/13 A302 RMK A01 T02460128  RH  048%=      5-min Rain = 0
KWA1 111636Z 00004KT 25/13 A302 RMK A01 T02450133  RH  050%=      5-min Rain = 0
KWA1 111637Z 01003KT 25/13 A302 RMK A01 T02450130  RH  048%=      5-min Rain = 0
KWA1 111638Z 35004KT 25/13 A302 RMK A01 T02460131  RH  049%=      5-min Rain = 0
KWA1 111639Z 34004KT 25/13 A302 RMK A01 T02450129  RH  048%=      5-min Rain = 0
KWA1 111640Z 33003KT 24/13 A302 RMK A01 T02440126  RH  048%=      5-min Rain = 0
KWA1 111641Z 33001KT 24/13 A302 RMK A01 T02420127  RH  049%=      5-min Rain = 0
KWA1 111642Z 24001KT 24/13 A302 RMK A01 T02430125  RH  047%=      5-min Rain = 0
KWA1 111643Z 31004KT 25/13 A302 RMK A01 T02460125  RH  047%=      5-min Rain = 0
KWA1 111644Z 32003KT 25/12 A302 RMK A01 T02460120  RH  045%=      5-min Rain = 0
KWA1 111645Z 32003KT 25/13 A302 RMK A01 T02450125  RH  047%=      5-min Rain = 0
KWA1 111646Z 31002KT 25/12 A302 RMK A01 T02460119  RH  045%=      5-min Rain = 0
KWA1 111647Z 31002KT 25/11 A302 RMK A01 T02460112  RH  043%=      5-min Rain = 0
KWA1 111648Z 29002KT 25/11 A302 RMK A01 T02450112  RH  043%=      5-min Rain = 0
KWA1 111649Z 26002KT 25/11 A3019 RMK A01 T02450114  RH  044%=      5-min Rain = 0
KWA1 111650Z 26001KT 25/12 A302 RMK A01 T02460122  RH  046%=      5-min Rain = 0
KWA1 111651Z 24000KT 25/13 A302 RMK A01 T02470127  RH  047%=      5-min Rain = 0
KWA1 111652Z 19000KT 25/12 A302 RMK A01 T02490123  RH  045%=      5-min Rain = 0
KWA1 111653Z 27001KT 25/13 A302 RMK A01 T02500125  RH  046%=      5-min Rain = 0
KWA1 111654Z 25001KT 25/13 A302 RMK A01 T02520127  RH  046%=      5-min Rain = 0
KWA1 111655Z 26002KT 25/13 A302 RMK A01 T02510126  RH  046%=      5-min Rain = 0
KWA1 111656Z 24002KT 25/13 A302 RMK A01 T02500129  RH  047%=      5-min Rain = 0
KWA1 111657Z 23001KT 25/13 A302 RMK A01 T02500128  RH  047%=      5-min Rain = 0
KWA1 111658Z 33002KT 25/13 A302 RMK A01 T02510131  RH  047%=      5-min Rain = 0
KWA1 111659Z 31001KT 25/12 A302 RMK A01 T02520123  RH  045%=      5-min Rain = 0
KWA1 111700Z 26001KT 25/13 A302 RMK A01 T02520127  RH  046%=      5-min Rain = 0
KWA1 111701Z 20002KT 25/13 A3019 RMK A01 T02520129  RH  046%=      5-min Rain = 0
KWA1 111702Z 21002KT 25/13 A3019 RMK A01 T02530126  RH  045%=      5-min Rain = 0
KWA1 111703Z 24002KT 25/13 A3019 RMK A01 T02520131  RH  047%=      5-min Rain = 0
KWA1 111704Z 27003KT 25/13 A3019 RMK A01 T02520125  RH  045%=      5-min Rain = 0
KWA1 111705Z 28002KT 25/13 A3019 RMK A01 T02510125  RH  045%=      5-min Rain = 0
KWA1 111706Z 27002KT 25/13 A3019 RMK A01 T02500128  RH  047%=      5-min Rain = 0
KWA1 111707Z 31000KT 25/13 A3019 RMK A01 T02520134  RH  048%=      5-min Rain = 0
KWA1 111708Z 27000KT 26/13 A3019 RMK A01 T02550130  RH  046%=      5-min Rain = 0
KWA1 111709Z 20001KT 26/13 A3019 RMK A01 T02570129  RH  045%=      5-min Rain = 0
KWA1 111710Z 23001KT 26/13 A3019 RMK A01 T02570134  RH  047%=      5-min Rain = 0
KWA1 111711Z 13000KT 26/14 A3019 RMK A01 T02570139  RH  048%=      5-min Rain = 0
KWA1 111712Z 31002KT 26/14 A3019 RMK A01 T02600136  RH  046%=      5-min Rain = 0
KWA1 111713Z 34002KT 26/13 A3019 RMK A01 T02620133  RH  045%=      5-min Rain = 0
KWA1 111714Z 32003KT 26/13 A3019 RMK A01 T02620134  RH  045%=      5-min Rain = 0
KWA1 111715Z 32003KT 26/13 A3019 RMK A01 T02630130  RH  044%=      5-min Rain = 0
KWA1 111716Z 33004KT 26/13 A3019 RMK A01 T02620131  RH  044%=      5-min Rain = 0
KWA1 111717Z 33002KT 26/13 A3019 RMK A01 T02610129  RH  044%=      5-min Rain = 0
KWA1 111718Z 01006KT 26/13 A3019 RMK A01 T02590128  RH  044%=      5-min Rain = 0
KWA1 111719Z 36006KT 26/13 A3019 RMK A01 T02590125  RH  043%=      5-min Rain = 0
KWA1 111720Z 34006KT 26/12 A3019 RMK A01 T02560120  RH  042%=      5-min Rain = 0
KWA1 111721Z 31006KT 26/12 A3019 RMK A01 T02550120  RH  043%=      5-min Rain = 0
KWA1 111722Z 34004KT 25/12 A3019 RMK A01 T02540122  RH  044%=      5-min Rain = 0
KWA1 111723Z 05006KT 26/13 A3019 RMK A01 T02550127  RH  045%=      5-min Rain = 0
KWA1 111724Z 05006KT 26/12 A3019 RMK A01 T02560123  RH  044%=      5-min Rain = 0
KWA1 111725Z 09003KT 26/12 A3019 RMK A01 T02560122  RH  043%=      5-min Rain = 0
KWA1 111726Z 10002KT 26/12 A3019 RMK A01 T02550120  RH  043%=      5-min Rain = 0
KWA1 111727Z 10001KT 26/12 A3019 RMK A01 T02550121  RH  043%=      5-min Rain = 0
KWA1 111728Z 13002KT 26/12 A3019 RMK A01 T02560122  RH  043%=      5-min Rain = 0
KWA1 111729Z 05001KT 26/12 A3019 RMK A01 T02570118  RH  042%=      5-min Rain = 0
KWA1 111730Z 35002KT 26/12 A3019 RMK A01 T02570124  RH  044%=      5-min Rain = 0
KWA1 111731Z 01003KT 26/13 A3019 RMK A01 T02590134  RH  046%=      5-min Rain = 0
KWA1 111732Z 35003KT 26/13 A3019 RMK A01 T02620127  RH  043%=      5-min Rain = 0
KWA1 111733Z 29004KT 26/12 A3019 RMK A01 T02610123  RH  042%=      5-min Rain = 0
KWA1 111734Z 30004KT 26/12 A3019 RMK A01 T02570121  RH  043%=      5-min Rain = 0
KWA1 111735Z 31005KT 26/12 A3019 RMK A01 T02550122  RH  044%=      5-min Rain = 0
KWA1 111736Z 32005KT 26/13 A3019 RMK A01 T02550125  RH  044%=      5-min Rain = 0
KWA1 111737Z 32004KT 26/12 A3019 RMK A01 T02550122  RH  043%=      5-min Rain = 0
KWA1 111738Z 30003KT 26/12 A3019 RMK A01 T02550124  RH  044%=      5-min Rain = 0
KWA1 111739Z 31004KT 26/13 A3019 RMK A01 T02560126  RH  044%=      5-min Rain = 0
KWA1 111740Z 01003KT 26/13 A3019 RMK A01 T02580133  RH  046%=      5-min Rain = 0
KWA1 111741Z 03003KT 26/13 A3019 RMK A01 T02610128  RH  044%=      5-min Rain = 0
KWA1 111742Z 04002KT 26/12 A3019 RMK A01 T02620122  RH  042%=      5-min Rain = 0
KWA1 111743Z 29000KT 26/12 A3019 RMK A01 T02600119  RH  042%=      5-min Rain = 0
KWA1 111744Z 02003KT 26/12 A3019 RMK A01 T02590121  RH  042%=      5-min Rain = 0
KWA1 111745Z 07001KT 26/12 A3019 RMK A01 T02580117  RH  041%=      5-min Rain = 0
KWA1 111746Z 03002KT 26/12 A3018 RMK A01 T02570117  RH  042%=      5-min Rain = 0
KWA1 111747Z 02003KT 26/13 A3018 RMK A01 T02570125  RH  044%=      5-min Rain = 0
KWA1 111748Z 01001KT 26/12 A3018 RMK A01 T02590119  RH  042%=      5-min Rain = 0
KWA1 111749Z 03002KT 26/12 A3018 RMK A01 T02600119  RH  041%=      5-min Rain = 0
KWA1 111750Z 04006KT 26/13 A3018 RMK A01 T02620126  RH  043%=      5-min Rain = 0
KWA1 111751Z 00007KT 26/12 A3018 RMK A01 T02630124  RH  042%=      5-min Rain = 0
KWA1 111752Z 36008KT 26/13 A3018 RMK A01 T02640126  RH  042%=      5-min Rain = 0
KWA1 111753Z 36009KT 27/13 A3018 RMK A01 T02660125  RH  042%=      5-min Rain = 0
KWA1 111754Z 34008KT 27/12 A3018 RMK A01 T02670123  RH  041%=      5-min Rain = 0
KWA1 111755Z 34008KT 27/12 A3018 RMK A01 T02650124  RH  042%=      5-min Rain = 0
KWA1 111756Z 00009KT 27/12 A3018 RMK A01 T02660124  RH  042%=      5-min Rain = 0
KWA1 111757Z 02008KT 27/13 A3018 RMK A01 T02670128  RH  042%=      5-min Rain = 0
KWA1 111758Z 02008KT 27/13 A3018 RMK A01 T02690127  RH  041%=      5-min Rain = 0
KWA1 111759Z 03008KT 27/12 A3018 RMK A01 T02690124  RH  041%=      5-min Rain = 0
KWA1 111800Z 04006KT 27/12 A3018 RMK A01 T02680124  RH  041%=      5-min Rain = 0
KWA1 111801Z 02003KT 27/12 A3018 RMK A01 T02650119  RH  040%=      5-min Rain = 0
KWA1 111802Z 02003KT 26/13 A3018 RMK A01 T02640125  RH  042%=      5-min Rain = 0
KWA1 111803Z 34005KT 27/13 A3018 RMK A01 T02650128  RH  043%=      5-min Rain = 0
KWA1 111804Z 35006KT 27/13 A3018 RMK A01 T02680126  RH  041%=      5-min Rain = 0
KWA1 111805Z 00007KT 27/13 A3018 RMK A01 T02680127  RH  042%=      5-min Rain = 0
KWA1 111806Z 36008KT 27/13 A3018 RMK A01 T02690127  RH  041%=      5-min Rain = 0
KWA1 111807Z 35004KT 27/12 A3018 RMK A01 T02700124  RH  040%=      5-min Rain = 0
KWA1 111808Z 33006KT 27/12 A3018 RMK A01 T02680122  RH  040%=      5-min Rain = 0
KWA1 111809Z 33006KT 27/12 A3017 RMK A01 T02670122  RH  040%=      5-min Rain = 0
KWA1 111810Z 33006KT 27/12 A3017 RMK A01 T02660124  RH  041%=      5-min Rain = 0
KWA1 111811Z 33004KT 27/12 A3017 RMK A01 T02650119  RH  040%=      5-min Rain = 0
KWA1 111812Z 27003KT 26/12 A3017 RMK A01 T02630119  RH  041%=      5-min Rain = 0
KWA1 111813Z 29002KT 26/12 A3017 RMK A01 T02630121  RH  041%=      5-min Rain = 0
KWA1 111814Z 33003KT 26/12 A3017 RMK A01 T02640124  RH  042%=      5-min Rain = 0
KWA1 111815Z 03005KT 27/13 A3017 RMK A01 T02670127  RH  042%=      5-min Rain = 0
KWA1 111816Z 03006KT 27/13 A3017 RMK A01 T02690126  RH  041%=      5-min Rain = 0
KWA1 111817Z 01006KT 27/13 A3017 RMK A01 T02700127  RH  041%=      5-min Rain = 0
KWA1 111818Z 03006KT 27/13 A3017 RMK A01 T02710126  RH  041%=      5-min Rain = 0
KWA1 111819Z 04006KT 27/12 A3017 RMK A01 T02700123  RH  040%=      5-min Rain = 0
KWA1 111820Z 08003KT 27/12 A3017 RMK A01 T02690124  RH  041%=      5-min Rain = 0
KWA1 111821Z 06002KT 27/12 A3017 RMK A01 T02680121  RH  040%=      5-min Rain = 0
KWA1 111822Z 04001KT 27/12 A3017 RMK A01 T02680123  RH  040%=      5-min Rain = 0
KWA1 111823Z 35004KT 27/13 A3017 RMK A01 T02690125  RH  041%=      5-min Rain = 0
KWA1 111824Z 02005KT 27/13 A3017 RMK A01 T02710129  RH  041%=      5-min Rain = 0
KWA1 111825Z 35001KT 27/12 A3017 RMK A01 T02720122  RH  039%=      5-min Rain = 0
KWA1 111826Z 01003KT 27/13 A3017 RMK A01 T02720127  RH  041%=      5-min Rain = 0
KWA1 111827Z 00004KT 27/12 A3017 RMK A01 T02730124  RH  040%=      5-min Rain = 0
KWA1 111828Z 04006KT 27/13 A3017 RMK A01 T02730128  RH  041%=      5-min Rain = 0
KWA1 111829Z 04004KT 27/12 A3017 RMK A01 T02730124  RH  040%=      5-min Rain = 0
KWA1 111830Z 05005KT 27/13 A3017 RMK A01 T02710125  RH  040%=      5-min Rain = 0
KWA1 111831Z 06002KT 27/12 A3016 RMK A01 T02690122  RH  040%=      5-min Rain = 0
KWA1 111832Z 31005KT 27/12 A3016 RMK A01 T02690124  RH  041%=      5-min Rain = 0
KWA1 111833Z 34007KT 27/13 A3016 RMK A01 T02690129  RH  042%=      5-min Rain = 0
KWA1 111834Z 00005KT 27/13 A3016 RMK A01 T02710129  RH  041%=      5-min Rain = 0
KWA1 111835Z 34004KT 27/12 A3016 RMK A01 T02740119  RH  038%=      5-min Rain = 0
KWA1 111836Z 35005KT 27/12 A3016 RMK A01 T02740124  RH  040%=      5-min Rain = 0
KWA1 111837Z 02008KT 27/12 A3016 RMK A01 T02730122  RH  039%=      5-min Rain = 0
KWA1 111838Z 03003KT 27/12 A3016 RMK A01 T02740119  RH  038%=      5-min Rain = 0
KWA1 111839Z 06000KT 27/12 A3016 RMK A01 T02730115  RH  038%=      5-min Rain = 0
KWA1 111840Z 05002KT 27/12 A3016 RMK A01 T02730120  RH  039%=      5-min Rain = 0
KWA1 111841Z 02004KT 27/12 A3016 RMK A01 T02740122  RH  039%=      5-min Rain = 0
KWA1 111842Z 05008KT 28/13 A3016 RMK A01 T02760127  RH  040%=      5-min Rain = 0
KWA1 111843Z 03007KT 28/12 A3016 RMK A01 T02760122  RH  038%=      5-min Rain = 0
KWA1 111844Z 02004KT 27/12 A3016 RMK A01 T02740120  RH  038%=      5-min Rain = 0
KWA1 111845Z 02003KT 27/12 A3016 RMK A01 T02730118  RH  038%=      5-min Rain = 0
KWA1 111846Z 04005KT 27/12 A3016 RMK A01 T02720124  RH  040%=      5-min Rain = 0
KWA1 111847Z 07005KT 27/12 A3016 RMK A01 T02740122  RH  039%=      5-min Rain = 0
KWA1 111848Z 05004KT 27/12 A3016 RMK A01 T02730123  RH  039%=      5-min Rain = 0
KWA1 111849Z 05002KT 27/12 A3016 RMK A01 T02730120  RH  039%=      5-min Rain = 0
KWA1 111850Z 02003KT 27/12 A3015 RMK A01 T02730120  RH  039%=      5-min Rain = 0
KWA1 111851Z 01002KT 27/12 A3015 RMK A01 T02740122  RH  039%=      5-min Rain = 0
KWA1 111852Z 03002KT 28/12 A3015 RMK A01 T02750121  RH  038%=      5-min Rain = 0
KWA1 111853Z 35000KT 28/12 A3015 RMK A01 T02760122  RH  038%=      5-min Rain = 0
KWA1 111854Z 03001KT 28/12 A3015 RMK A01 T02770120  RH  038%=      5-min Rain = 0
KWA1 111855Z 31003KT 28/12 A3015 RMK A01 T02780124  RH  038%=      5-min Rain = 0
KWA1 111856Z 33003KT 28/13 A3015 RMK A01 T02800126  RH  039%=      5-min Rain = 0
KWA1 111857Z 01005KT 28/13 A3015 RMK A01 T02810125  RH  038%=      5-min Rain = 0
KWA1 111858Z 35003KT 28/12 A3015 RMK A01 T02820120  RH  037%=      5-min Rain = 0
KWA1 111859Z 35003KT 28/12 A3015 RMK A01 T02800121  RH  037%=      5-min Rain = 0
KWA1 111900Z 01005KT 28/12 A3015 RMK A01 T02790124  RH  038%=      5-min Rain = 0
KWA1 111901Z 35006KT 28/13 A3015 RMK A01 T02810126  RH  038%=      5-min Rain = 0
KWA1 111902Z 33005KT 28/12 A3015 RMK A01 T02810117  RH  036%=      5-min Rain = 0
KWA1 111903Z 33005KT 28/12 A3014 RMK A01 T02780118  RH  037%=      5-min Rain = 0
KWA1 111904Z 01005KT 28/12 A3014 RMK A01 T02770122  RH  038%=      5-min Rain = 0
KWA1 111905Z 01009KT 28/13 A3014 RMK A01 T02790126  RH  039%=      5-min Rain = 0
KWA1 111906Z 01007KT 28/12 A3014 RMK A01 T02810120  RH  037%=      5-min Rain = 0
KWA1 111907Z 02007KT 28/12 A3014 RMK A01 T02810122  RH  037%=      5-min Rain = 0
KWA1 111908Z 03006KT 28/12 A3014 RMK A01 T02810119  RH  037%=      5-min Rain = 0
KWA1 111909Z 03004KT 28/12 A3014 RMK A01 T02810121  RH  037%=      5-min Rain = 0
KWA1 111910Z 01006KT 28/13 A3014 RMK A01 T02810126  RH  038%=      5-min Rain = 0
KWA1 111911Z 01009KT 28/12 A3014 RMK A01 T02830123  RH  037%=      5-min Rain = 0
KWA1 111912Z 02008KT 29/13 A3014 RMK A01 T02850125  RH  037%=      5-min Rain = 0
KWA1 111913Z 02007KT 29/13 A3014 RMK A01 T02880128  RH  037%=      5-min Rain = 0
KWA1 111914Z 03007KT 29/12 A3014 RMK A01 T02900124  RH  036%=      5-min Rain = 0
KWA1 111915Z 05007KT 29/12 A3014 RMK A01 T02900119  RH  035%=      5-min Rain = 0
KWA1 111916Z 05009KT 29/12 A3014 RMK A01 T02880118  RH  035%=      5-min Rain = 0
KWA1 111917Z 05006G11KT 29/12 A3013 RMK A01 T02870116  RH  035%=      5-min Rain = 0
KWA1 111918Z 05009KT 29/12 A3013 RMK A01 T02850118  RH  035%=      5-min Rain = 0
KWA1 111919Z 05008KT 28/12 A3013 RMK A01 T02830117  RH  036%=      5-min Rain = 0
KWA1 111920Z 05008KT 28/12 A3013 RMK A01 T02820117  RH  036%=      5-min Rain = 0
KWA1 111921Z 04008KT 28/12 A3013 RMK A01 T02810121  RH  037%=      5-min Rain = 0
KWA1 111922Z 04007KT 28/12 A3013 RMK A01 T02820120  RH  037%=      5-min Rain = 0
KWA1 111923Z 05007KT 28/12 A3013 RMK A01 T02830119  RH  036%=      5-min Rain = 0
KWA1 111924Z 05007KT 28/12 A3013 RMK A01 T02820116  RH  036%=      5-min Rain = 0
KWA1 111925Z 05007KT 28/12 A3013 RMK A01 T02810120  RH  037%=      5-min Rain = 0
KWA1 111926Z 05009KT 28/12 A3013 RMK A01 T02830122  RH  037%=      5-min Rain = 0
KWA1 111927Z 06008KT 28/12 A3013 RMK A01 T02840119  RH  036%=      5-min Rain = 0
KWA1 111928Z 04007KT 28/12 A3013 RMK A01 T02830120  RH  036%=      5-min Rain = 0
KWA1 111929Z 01008KT 28/12 A3013 RMK A01 T02840118  RH  036%=      5-min Rain = 0
KWA1 111930Z 02005KT 29/12 A3013 RMK A01 T02850120  RH  036%=      5-min Rain = 0
KWA1 111931Z 02007KT 29/12 A3013 RMK A01 T02860121  RH  036%=      5-min Rain = 0
KWA1 111932Z 02006KT 29/12 A3013 RMK A01 T02870118  RH  035%=      5-min Rain = 0
KWA1 111933Z 03006KT 29/12 A3013 RMK A01 T02860118  RH  035%=      5-min Rain = 0
KWA1 111934Z 01004KT 29/12 A3013 RMK A01 T02860121  RH  036%=      5-min Rain = 0
KWA1 111935Z 36004KT 29/12 A3013 RMK A01 T02870120  RH  036%=      5-min Rain = 0
KWA1 111936Z 03006G12KT 29/12 A3013 RMK A01 T02880119  RH  035%=      5-min Rain = 0
KWA1 111937Z 04011KT 29/12 A3013 RMK A01 T02870121  RH  036%=      5-min Rain = 0
KWA1 111938Z 04008KT 29/12 A3013 RMK A01 T02870119  RH  035%=      5-min Rain = 0
KWA1 111939Z 04009KT 29/12 A3013 RMK A01 T02860119  RH  036%=      5-min Rain = 0
KWA1 111940Z 03008KT 28/12 A3013 RMK A01 T02840117  RH  035%=      5-min Rain = 0
KWA1 111941Z 03006KT 28/12 A3012 RMK A01 T02840120  RH  036%=      5-min Rain = 0
KWA1 111942Z 03007KT 29/12 A3012 RMK A01 T02860122  RH  036%=      5-min Rain = 0
KWA1 111943Z 01007KT 29/12 A3012 RMK A01 T02880124  RH  036%=      5-min Rain = 0
KWA1 111944Z 35006KT 29/12 A3012 RMK A01 T02880118  RH  035%=      5-min Rain = 0
KWA1 111945Z 35007KT 29/12 A3012 RMK A01 T02860116  RH  035%=      5-min Rain = 0
KWA1 111946Z 01006KT 29/12 A3012 RMK A01 T02850122  RH  037%=      5-min Rain = 0
KWA1 111947Z 34006KT 29/12 A3012 RMK A01 T02870122  RH  036%=      5-min Rain = 0
KWA1 111948Z 34007KT 29/13 A3012 RMK A01 T02890125  RH  036%=      5-min Rain = 0
KWA1 111949Z 35007KT 29/12 A3012 RMK A01 T02920120  RH  035%=      5-min Rain = 0
KWA1 111950Z 34007KT 29/12 A3012 RMK A01 T02910121  RH  035%=      5-min Rain = 0
KWA1 111951Z 01009KT 29/12 A3012 RMK A01 T02910124  RH  036%=      5-min Rain = 0
KWA1 111952Z 03009KT 29/13 A3012 RMK A01 T02930125  RH  035%=      5-min Rain = 0
KWA1 111953Z 04009KT 29/12 A3012 RMK A01 T02930118  RH  034%=      5-min Rain = 0
KWA1 111954Z 07010KT 29/12 A3012 RMK A01 T02900118  RH  035%=      5-min Rain = 0
KWA1 111955Z 07007KT 29/12 A3012 RMK A01 T02860117  RH  035%=      5-min Rain = 0
KWA1 111956Z 07006KT 29/12 A3011 RMK A01 T02850116  RH  035%=      5-min Rain = 0
KWA1 111957Z 08005KT 28/11 A3011 RMK A01 T02840112  RH  034%=      5-min Rain = 0
KWA1 111958Z 05005KT 28/12 A3011 RMK A01 T02830117  RH  036%=      5-min Rain = 0
KWA1 111959Z 02005KT 28/12 A3011 RMK A01 T02840116  RH  035%=      5-min Rain = 0
KWA1 112000Z 04003KT 28/11 A3011 RMK A01 T02840114  RH  035%=      5-min Rain = 0
KWA1 112001Z 36003KT 29/12 A3011 RMK A01 T02850118  RH  036%=      5-min Rain = 0
KWA1 112002Z 34004KT 29/12 A3011 RMK A01 T02870121  RH  036%=      5-min Rain = 0
KWA1 112003Z 30004KT 29/12 A3011 RMK A01 T02880117  RH  035%=      5-min Rain = 0
KWA1 112004Z 34005KT 29/12 A3011 RMK A01 T02890120  RH  035%=      5-min Rain = 0
KWA1 112005Z 02008KT 29/12 A3011 RMK A01 T02890121  RH  035%=      5-min Rain = 0
KWA1 112006Z 03004KT 29/12 A3011 RMK A01 T02910115  RH  034%=      5-min Rain = 0
KWA1 112007Z 01009KT 29/12 A3011 RMK A01 T02910120  RH  035%=      5-min Rain = 0
KWA1 112008Z 03007KT 29/12 A301 RMK A01 T02920116  RH  034%=      5-min Rain = 0
KWA1 112009Z 36005KT 29/12 A301 RMK A01 T02920121  RH  035%=      5-min Rain = 0
KWA1 112010Z 00009G14KT 29/12 A301 RMK A01 T02930120  RH  034%=      5-min Rain = 0
KWA1 112011Z 02010G15KT 29/12 A301 RMK A01 T02940120  RH  034%=      5-min Rain = 0
KWA1 112012Z 02008KT 30/12 A301 RMK A01 T02950118  RH  033%=      5-min Rain = 0
KWA1 112013Z 01007KT 30/12 A301 RMK A01 T02950120  RH  034%=      5-min Rain = 0
KWA1 112014Z 02007KT 30/12 A301 RMK A01 T02960118  RH  034%=      5-min Rain = 0
KWA1 112015Z 03009KT 30/12 A301 RMK A01 T02950119  RH  034%=      5-min Rain = 0
KWA1 112016Z 03010KT 30/12 A301 RMK A01 T02950118  RH  034%=      5-min Rain = 0
KWA1 112017Z 01010KT 29/12 A301 RMK A01 T02940118  RH  034%=      5-min Rain = 0
KWA1 112018Z 03009KT 29/12 A301 RMK A01 T02930117  RH  034%=      5-min Rain = 0
KWA1 112019Z 05005KT 29/12 A301 RMK A01 T02920117  RH  034%=      5-min Rain = 0
KWA1 112020Z 05004KT 29/12 A301 RMK A01 T02910118  RH  034%=      5-min Rain = 0
KWA1 112021Z 06004KT 29/12 A301 RMK A01 T02900115  RH  034%=      5-min Rain = 0
KWA1 112022Z 36004KT 29/12 A301 RMK A01 T02890122  RH  036%=      5-min Rain = 0
KWA1 112023Z 34005KT 29/12 A301 RMK A01 T02900117  RH  034%=      5-min Rain = 0
KWA1 112024Z 34006KT 29/12 A301 RMK A01 T02910122  RH  035%=      5-min Rain = 0
KWA1 112025Z 33008KT 29/12 A301 RMK A01 T02940124  RH  035%=      5-min Rain = 0
KWA1 112026Z 34007KT 30/12 A301 RMK A01 T02960120  RH  034%=      5-min Rain = 0
KWA1 112027Z 01008KT 30/12 A301 RMK A01 T02960123  RH  035%=      5-min Rain = 0
KWA1 112028Z 01005KT 30/12 A301 RMK A01 T02960116  RH  033%=      5-min Rain = 0
KWA1 112029Z 01009KT 29/12 A301 RMK A01 T02940119  RH  034%=      5-min Rain = 0
KWA1 112030Z 05005KT 29/12 A301 RMK A01 T02930117  RH  034%=      5-min Rain = 0
KWA1 112031Z 02002KT 29/12 A3009 RMK A01 T02920123  RH  035%=      5-min Rain = 0
KWA1 112032Z 34003KT 29/12 A3009 RMK A01 T02930117  RH  034%=      5-min Rain = 0
KWA1 112033Z 32003KT 29/12 A3009 RMK A01 T02930115  RH  033%=      5-min Rain = 0
KWA1 112034Z 33004KT 29/12 A3009 RMK A01 T02930118  RH  034%=      5-min Rain = 0
KWA1 112035Z 35005KT 29/12 A3009 RMK A01 T02930120  RH  034%=      5-min Rain = 0
KWA1 112036Z 35009KT 29/13 A3009 RMK A01 T02940125  RH  035%=      5-min Rain = 0
KWA1 112037Z 35008KT 30/12 A3009 RMK A01 T02950121  RH  034%=      5-min Rain = 0
KWA1 112038Z 35005KT 30/12 A3009 RMK A01 T02950121  RH  034%=      5-min Rain = 0
KWA1 112039Z 34008KT 30/12 A3009 RMK A01 T02950122  RH  034%=      5-min Rain = 0
KWA1 112040Z 33008KT 30/12 A3009 RMK A01 T02950121  RH  034%=      5-min Rain = 0
KWA1 112041Z 33009KT 29/12 A3009 RMK A01 T02940121  RH  034%=      5-min Rain = 0
KWA1 112042Z 34012KT 29/12 A3009 RMK A01 T02930120  RH  034%=      5-min Rain = 0
KWA1 112043Z 33008KT 29/12 A3009 RMK A01 T02920118  RH  034%=      5-min Rain = 0
KWA1 112044Z 34008KT 29/12 A3009 RMK A01 T02930123  RH  035%=      5-min Rain = 0
KWA1 112045Z 36010KT 30/12 A3009 RMK A01 T02950122  RH  034%=      5-min Rain = 0
KWA1 112046Z 00006KT 29/12 A3009 RMK A01 T02940119  RH  034%=      5-min Rain = 0
KWA1 112047Z 02007KT 29/12 A3009 RMK A01 T02940121  RH  035%=      5-min Rain = 0
KWA1 112048Z 01007KT 29/12 A3009 RMK A01 T02930120  RH  034%=      5-min Rain = 0
KWA1 112049Z 01009KT 29/12 A3008 RMK A01 T02940123  RH  035%=      5-min Rain = 0
KWA1 112050Z 02008KT 30/12 A3008 RMK A01 T02960120  RH  034%=      5-min Rain = 0
KWA1 112051Z 02004KT 30/12 A3008 RMK A01 T02950121  RH  034%=      5-min Rain = 0
KWA1 112052Z 03005KT 29/12 A3008 RMK A01 T02940122  RH  035%=      5-min Rain = 0
KWA1 112053Z 04005KT 30/12 A3008 RMK A01 T02950120  RH  034%=      5-min Rain = 0
KWA1 112054Z 04005KT 29/12 A3008 RMK A01 T02940121  RH  034%=      5-min Rain = 0
KWA1 112055Z 03003KT 29/12 A3008 RMK A01 T02940116  RH  033%=      5-min Rain = 0
KWA1 112056Z 00003KT 29/12 A3008 RMK A01 T02930119  RH  034%=      5-min Rain = 0
KWA1 112057Z 01009KT 29/12 A3008 RMK A01 T02930117  RH  034%=      5-min Rain = 0
KWA1 112058Z 02011KT 30/12 A3008 RMK A01 T02950118  RH  034%=      5-min Rain = 0
KWA1 112059Z 02008KT 30/12 A3008 RMK A01 T02970115  RH  033%=      5-min Rain = 0
KWA1 112100Z 02012KT 30/12 A3008 RMK A01 T02980116  RH  033%=      5-min Rain = 0
KWA1 112101Z 02009G14KT 30/12 A3008 RMK A01 T02980115  RH  032%=      5-min Rain = 0
KWA1 112102Z 03005KT 30/11 A3008 RMK A01 T02970113  RH  032%=      5-min Rain = 0
KWA1 112103Z 01007G12KT 30/12 A3008 RMK A01 T02950119  RH  034%=      5-min Rain = 0
KWA1 112104Z 01010KT 30/12 A3008 RMK A01 T02970119  RH  033%=      5-min Rain = 0
KWA1 112105Z 01009KT 30/12 A3008 RMK A01 T02990118  RH  033%=      5-min Rain = 0
KWA1 112106Z 01006KT 30/11 A3008 RMK A01 T02990113  RH  032%=      5-min Rain = 0
KWA1 112107Z 00006KT 30/11 A3008 RMK A01 T02980114  RH  032%=      5-min Rain = 0
KWA1 112108Z 34008KT 30/12 A3008 RMK A01 T02970120  RH  033%=      5-min Rain = 0
KWA1 112109Z 36007KT 30/11 A3007 RMK A01 T02970113  RH  032%=      5-min Rain = 0
KWA1 112110Z 00006KT 30/12 A3007 RMK A01 T02960117  RH  033%=      5-min Rain = 0
KWA1 112111Z 00006KT 30/12 A3007 RMK A01 T02960119  RH  034%=      5-min Rain = 0
KWA1 112112Z 35008KT 30/12 A3007 RMK A01 T02970119  RH  033%=      5-min Rain = 0
KWA1 112113Z 35008KT 30/12 A3007 RMK A01 T02980117  RH  033%=      5-min Rain = 0
KWA1 112114Z 36008KT 30/12 A3007 RMK A01 T02980120  RH  033%=      5-min Rain = 0
KWA1 112115Z 01007KT 30/12 A3007 RMK A01 T03000119  RH  033%=      5-min Rain = 0
KWA1 112116Z 01005KT 30/12 A3007 RMK A01 T03000118  RH  033%=      5-min Rain = 0
KWA1 112117Z 02008G14KT 30/12 A3007 RMK A01 T03010120  RH  033%=      5-min Rain = 0
KWA1 112118Z 01012KT 30/12 A3007 RMK A01 T03010118  RH  032%=      5-min Rain = 0
KWA1 112119Z 01007KT 30/12 A3007 RMK A01 T03010118  RH  032%=      5-min Rain = 0
KWA1 112120Z 36007KT 30/12 A3007 RMK A01 T03020121  RH  033%=      5-min Rain = 0
KWA1 112121Z 01005KT 30/12 A3007 RMK A01 T03020121  RH  033%=      5-min Rain = 0
KWA1 112122Z 00005KT 30/12 A3007 RMK A01 T03020120  RH  033%=      5-min Rain = 0
KWA1 112123Z 00005KT 30/12 A3007 RMK A01 T03030123  RH  033%=      5-min Rain = 0
KWA1 112124Z 34008KT 30/12 A3007 RMK A01 T03030120  RH  032%=      5-min Rain = 0
KWA1 112125Z 35011G21KT 30/12 A3007 RMK A01 T03030123  RH  033%=      5-min Rain = 0
KWA1 112126Z 04014G19KT 30/12 A3007 RMK A01 T03030120  RH  032%=      5-min Rain = 0
KWA1 112127Z 05008KT 30/12 A3007 RMK A01 T03040118  RH  032%=      5-min Rain = 0
KWA1 112128Z 05006KT 30/12 A3007 RMK A01 T03020115  RH  032%=      5-min Rain = 0
KWA1 112129Z 02008KT 30/12 A3007 RMK A01 T03010120  RH  033%=      5-min Rain = 0
KWA1 112130Z 05007KT 30/12 A3007 RMK A01 T03020119  RH  032%=      5-min Rain = 0
KWA1 112131Z 05006KT 30/12 A3007 RMK A01 T03030120  RH  032%=      5-min Rain = 0
KWA1 112132Z 02005KT 30/12 A3007 RMK A01 T03030120  RH  032%=      5-min Rain = 0
KWA1 112133Z 02008KT 30/12 A3007 RMK A01 T03030119  RH  032%=      5-min Rain = 0
KWA1 112134Z 02005KT 30/12 A3007 RMK A01 T03030118  RH  032%=      5-min Rain = 0
KWA1 112135Z 36006KT 30/12 A3006 RMK A01 T03030120  RH  032%=      5-min Rain = 0
KWA1 112136Z 35005KT 30/12 A3006 RMK A01 T03030116  RH  032%=      5-min Rain = 0
KWA1 112137Z 34007KT 30/12 A3006 RMK A01 T03020117  RH  032%=      5-min Rain = 0
KWA1 112138Z 34005KT 30/12 A3006 RMK A01 T03010115  RH  032%=      5-min Rain = 0
KWA1 112139Z 34004KT 30/12 A3006 RMK A01 T03000118  RH  033%=      5-min Rain = 0
KWA1 112140Z 33006KT 30/12 A3006 RMK A01 T03010120  RH  033%=      5-min Rain = 0
KWA1 112141Z 34005KT 30/12 A3006 RMK A01 T03010118  RH  032%=      5-min Rain = 0
KWA1 112142Z 35005KT 30/12 A3006 RMK A01 T03010116  RH  032%=      5-min Rain = 0
KWA1 112143Z 35005KT 30/11 A3006 RMK A01 T03000112  RH  031%=      5-min Rain = 0
KWA1 112144Z 03006KT 30/12 A3006 RMK A01 T02990119  RH  033%=      5-min Rain = 0
KWA1 112145Z 06009KT 30/12 A3006 RMK A01 T03000117  RH  032%=      5-min Rain = 0
KWA1 112146Z 06010KT 30/12 A3006 RMK A01 T03000116  RH  032%=      5-min Rain = 0
KWA1 112147Z 06008KT 30/12 A3006 RMK A01 T02980117  RH  033%=      5-min Rain = 0
KWA1 112148Z 05008KT 30/12 A3006 RMK A01 T02980118  RH  033%=      5-min Rain = 0
KWA1 112149Z 06006KT 30/12 A3006 RMK A01 T02980119  RH  033%=      5-min Rain = 0
KWA1 112150Z 07007KT 30/12 A3006 RMK A01 T02980117  RH  033%=      5-min Rain = 0
KWA1 112151Z 07005KT 30/12 A3006 RMK A01 T02980122  RH  034%=      5-min Rain = 0
KWA1 112152Z 05006KT 30/12 A3006 RMK A01 T02990122  RH  034%=      5-min Rain = 0
KWA1 112153Z 04006KT 30/12 A3006 RMK A01 T03000115  RH  032%=      5-min Rain = 0
KWA1 112154Z 03008KT 30/12 A3006 RMK A01 T02990120  RH  033%=      5-min Rain = 0
KWA1 112155Z 02006KT 30/12 A3006 RMK A01 T02990119  RH  033%=      5-min Rain = 0
KWA1 112156Z 03007KT 30/12 A3006 RMK A01 T03000123  RH  034%=      5-min Rain = 0
KWA1 112157Z 02007KT 30/12 A3006 RMK A01 T03020123  RH  033%=      5-min Rain = 0
KWA1 112158Z 35007KT 30/12 A3006 RMK A01 T03030123  RH  033%=      5-min Rain = 0
KWA1 112159Z 35008KT 30/12 A3006 RMK A01 T03040118  RH  032%=      5-min Rain = 0
KWA1 112200Z 34006KT 30/12 A3006 RMK A01 T03020120  RH  033%=      5-min Rain = 0
KWA1 112201Z 35006KT 30/13 A3006 RMK A01 T03020126  RH  034%=      5-min Rain = 0
KWA1 112202Z 00009KT 30/12 A3006 RMK A01 T03030124  RH  033%=      5-min Rain = 0
KWA1 112203Z 04009KT 30/12 A3006 RMK A01 T03040120  RH  032%=      5-min Rain = 0
KWA1 112204Z 05007KT 30/12 A3006 RMK A01 T03040120  RH  032%=      5-min Rain = 0
KWA1 112205Z 04008KT 30/12 A3006 RMK A01 T03040121  RH  032%=      5-min Rain = 0
KWA1 112206Z 05009KT 30/12 A3006 RMK A01 T03030118  RH  032%=      5-min Rain = 0
KWA1 112207Z 05008KT 30/12 A3006 RMK A01 T03020117  RH  032%=      5-min Rain = 0
KWA1 112208Z 05008KT 30/12 A3006 RMK A01 T03000116  RH  032%=      5-min Rain = 0
KWA1 112209Z 06006KT 30/12 A3006 RMK A01 T02990117  RH  033%=      5-min Rain = 0
KWA1 112210Z 06006KT 30/12 A3006 RMK A01 T02980116  RH  033%=      5-min Rain = 0
KWA1 112211Z 06006KT 30/11 A3006 RMK A01 T02970113  RH  032%=      5-min Rain = 0
KWA1 112212Z 06006KT 30/12 A3006 RMK A01 T02970115  RH  033%=      5-min Rain = 0
KWA1 112213Z 05005KT 30/12 A3006 RMK A01 T02970118  RH  033%=      5-min Rain = 0
KWA1 112214Z 04006KT 30/12 A3006 RMK A01 T02980121  RH  034%=      5-min Rain = 0
KWA1 112215Z 04006KT 30/12 A3006 RMK A01 T03000116  RH  032%=      5-min Rain = 0
KWA1 112216Z 04006KT 30/12 A3006 RMK A01 T02990118  RH  033%=      5-min Rain = 0
KWA1 112217Z 06006KT 30/12 A3005 RMK A01 T02990118  RH  033%=      5-min Rain = 0
KWA1 112218Z 06006KT 30/12 A3005 RMK A01 T02990122  RH  034%=      5-min Rain = 0
KWA1 112219Z 06005KT 30/12 A3005 RMK A01 T02990122  RH  033%=      5-min Rain = 0
KWA1 112220Z 01008G15KT 30/13 A3005 RMK A01 T03010125  RH  034%=      5-min Rain = 0
KWA1 112221Z 01006KT 30/12 A3005 RMK A01 T03020121  RH  033%=      5-min Rain = 0
KWA1 112222Z 02005KT 30/12 A3005 RMK A01 T03030120  RH  033%=      5-min Rain = 0
KWA1 112223Z 03004KT 30/12 A3005 RMK A01 T03030120  RH  032%=      5-min Rain = 0
KWA1 112224Z 00002KT 30/12 A3005 RMK A01 T03030124  RH  033%=      5-min Rain = 0
KWA1 112225Z 05002KT 30/12 A3005 RMK A01 T03030123  RH  033%=      5-min Rain = 0
KWA1 112226Z 05006KT 30/12 A3005 RMK A01 T03040118  RH  032%=      5-min Rain = 0
KWA1 112227Z 06003KT 30/11 A3005 RMK A01 T03020112  RH  031%=      5-min Rain = 0
KWA1 112228Z 05003KT 30/12 A3005 RMK A01 T03000115  RH  032%=      5-min Rain = 0
KWA1 112229Z 04008KT 30/12 A3005 RMK A01 T03000120  RH  033%=      5-min Rain = 0
KWA1 112230Z 03008KT 30/12 A3005 RMK A01 T03000122  RH  033%=      5-min Rain = 0
KWA1 112231Z 03006KT 30/12 A3005 RMK A01 T03010116  RH  032%=      5-min Rain = 0
KWA1 112232Z 03005KT 30/12 A3005 RMK A01 T02990118  RH  033%=      5-min Rain = 0
KWA1 112233Z 02010KT 30/12 A3005 RMK A01 T02990120  RH  033%=      5-min Rain = 0
KWA1 112234Z 00008KT 30/12 A3005 RMK A01 T03000118  RH  033%=      5-min Rain = 0
KWA1 112235Z 02009KT 30/12 A3005 RMK A01 T03010118  RH  032%=      5-min Rain = 0
KWA1 112236Z 03009KT 30/12 A3005 RMK A01 T03010120  RH  033%=      5-min Rain = 0
KWA1 112237Z 03008KT 30/12 A3005 RMK A01 T03000119  RH  033%=      5-min Rain = 0
KWA1 112238Z 02005KT 30/12 A3005 RMK A01 T02990119  RH  033%=      5-min Rain = 0
KWA1 112239Z 01004KT 30/12 A3005 RMK A01 T02990115  RH  032%=      5-min Rain = 0
KWA1 112240Z 34004KT 30/12 A3005 RMK A01 T02990119  RH  033%=      5-min Rain = 0
KWA1 112241Z 01007KT 30/12 A3005 RMK A01 T03000118  RH  033%=      5-min Rain = 0
KWA1 112242Z 02007KT 30/12 A3005 RMK A01 T03010121  RH  033%=      5-min Rain = 0
KWA1 112243Z 02005KT 30/12 A3005 RMK A01 T03020116  RH  032%=      5-min Rain = 0
KWA1 112244Z 03006KT 30/12 A3005 RMK A01 T03020118  RH  032%=      5-min Rain = 0
KWA1 112245Z 04007KT 30/12 A3005 RMK A01 T03010123  RH  033%=      5-min Rain = 0
KWA1 112246Z 07008KT 30/12 A3005 RMK A01 T03020123  RH  033%=      5-min Rain = 0
KWA1 112247Z 07010KT 30/12 A3005 RMK A01 T03020121  RH  033%=      5-min Rain = 0
KWA1 112248Z 07007KT 30/12 A3005 RMK A01 T03010115  RH  032%=      5-min Rain = 0
KWA1 112249Z 06008KT 30/12 A3005 RMK A01 T03000115  RH  032%=      5-min Rain = 0
KWA1 112250Z 07009KT 30/12 A3005 RMK A01 T02990117  RH  032%=      5-min Rain = 0
KWA1 112251Z 05008KT 30/12 A3005 RMK A01 T02990118  RH  033%=      5-min Rain = 0
KWA1 112252Z 03007KT 30/12 A3005 RMK A01 T03000120  RH  033%=      5-min Rain = 0
KWA1 112253Z 02008KT 30/12 A3005 RMK A01 T03000117  RH  033%=      5-min Rain = 0
KWA1 112254Z 03008KT 30/12 A3005 RMK A01 T03000116  RH  032%=      5-min Rain = 0
KWA1 112255Z 03007KT 30/12 A3005 RMK A01 T03000115  RH  032%=      5-min Rain = 0
KWA1 112256Z 03005KT 30/11 A3005 RMK A01 T02990113  RH  032%=      5-min Rain = 0
KWA1 112257Z 03007KT 30/11 A3005 RMK A01 T02990114  RH  032%=      5-min Rain = 0
KWA1 112258Z 06004KT 30/12 A3005 RMK A01 T02980117  RH  033%=      5-min Rain = 0
KWA1 112259Z 06006KT 30/12 A3005 RMK A01 T02990119  RH  033%=      5-min Rain = 0
KWA1 112300Z 07005KT 30/12 A3005 RMK A01 T02980117  RH  033%=      5-min Rain = 0
KWA1 112301Z 03004KT 30/12 A3005 RMK A01 T02980117  RH  033%=      5-min Rain = 0
KWA1 112302Z 01005KT 30/12 A3005 RMK A01 T02980120  RH  033%=      5-min Rain = 0
KWA1 112303Z 02008KT 30/12 A3005 RMK A01 T02990117  RH  033%=      5-min Rain = 0
KWA1 112304Z 03007KT 30/12 A3005 RMK A01 T02990117  RH  032%=      5-min Rain = 0
KWA1 112305Z 03005KT 30/12 A3005 RMK A01 T02990115  RH  032%=      5-min Rain = 0
KWA1 112306Z 02006KT 30/12 A3005 RMK A01 T02990119  RH  033%=      5-min Rain = 0
KWA1 112307Z 02007KT 30/12 A3005 RMK A01 T02980119  RH  033%=      5-min Rain = 0
KWA1 112308Z 03010KT 30/12 A3005 RMK A01 T02990118  RH  033%=      5-min Rain = 0
KWA1 112309Z 03009KT 30/11 A3005 RMK A01 T02990113  RH  032%=      5-min Rain = 0
KWA1 112310Z 03008KT 30/11 A3005 RMK A01 T02980113  RH  032%=      5-min Rain = 0
KWA1 112311Z 04006KT 30/12 A3005 RMK A01 T02970116  RH  033%=      5-min Rain = 0
KWA1 112312Z 04006KT 30/12 A3005 RMK A01 T02970118  RH  033%=      5-min Rain = 0
KWA1 112313Z 03007KT 30/12 A3005 RMK A01 T02970115  RH  032%=      5-min Rain = 0
KWA1 112314Z 04005KT 30/12 A3005 RMK A01 T02960118  RH  033%=      5-min Rain = 0
KWA1 112315Z 03004KT 30/12 A3005 RMK A01 T02970115  RH  032%=      5-min Rain = 0
KWA1 112316Z 06003KT 30/12 A3005 RMK A01 T02960115  RH  033%=      5-min Rain = 0
KWA1 112317Z 06003KT 30/11 A3005 RMK A01 T02960114  RH  033%=      5-min Rain = 0
KWA1 112318Z 05004KT 30/12 A3005 RMK A01 T02960120  RH  034%=      5-min Rain = 0
KWA1 112319Z 05006KT 30/12 A3005 RMK A01 T02960117  RH  033%=      5-min Rain = 0
KWA1 112320Z 05008KT 30/11 A3005 RMK A01 T02970114  RH  032%=      5-min Rain = 0
KWA1 112321Z 06006KT 30/11 A3005 RMK A01 T02960111  RH  032%=      5-min Rain = 0
KWA1 112322Z 05007KT 30/11 A3005 RMK A01 T02950112  RH  032%=      5-min Rain = 0
KWA1 112323Z 05007KT 30/11 A3005 RMK A01 T02950111  RH  032%=      5-min Rain = 0
KWA1 112324Z 05005KT 29/11 A3005 RMK A01 T02940111  RH  032%=      5-min Rain = 0
KWA1 112325Z 02004KT 29/12 A3005 RMK A01 T02940115  RH  033%=      5-min Rain = 0
KWA1 112326Z 04004KT 30/12 A3005 RMK A01 T02950117  RH  033%=      5-min Rain = 0
KWA1 112327Z 03005KT 30/12 A3005 RMK A01 T02950119  RH  034%=      5-min Rain = 0
KWA1 112328Z 03006KT 30/12 A3005 RMK A01 T02960116  RH  033%=      5-min Rain = 0
KWA1 112329Z 03008KT 30/12 A3005 RMK A01 T02960116  RH  033%=      5-min Rain = 0
KWA1 112330Z 04009KT 30/11 A3005 RMK A01 T02960109  RH  031%=      5-min Rain = 0
KWA1 112331Z 04008KT 30/11 A3005 RMK A01 T02950108  RH  031%=      5-min Rain = 0
KWA1 112332Z 04007KT 30/11 A3005 RMK A01 T02950109  RH  032%=      5-min Rain = 0
KWA1 112333Z 05007KT 29/11 A3005 RMK A01 T02940111  RH  032%=      5-min Rain = 0
KWA1 112334Z 05006KT 29/11 A3005 RMK A01 T02930107  RH  032%=      5-min Rain = 0
KWA1 112335Z 02006KT 29/11 A3005 RMK A01 T02930109  RH  032%=      5-min Rain = 0
KWA1 112336Z 02008KT 29/11 A3005 RMK A01 T02920112  RH  033%=      5-min Rain = 0
KWA1 112337Z 03008KT 29/11 A3005 RMK A01 T02930106  RH  031%=      5-min Rain = 0
KWA1 112338Z 02006KT 29/11 A3005 RMK A01 T02930107  RH  032%=      5-min Rain = 0
KWA1 112339Z 02007KT 29/11 A3005 RMK A01 T02930108  RH  032%=      5-min Rain = 0
KWA1 112340Z 02007KT 29/11 A3005 RMK A01 T02920106  RH  032%=      5-min Rain = 0
KWA1 112341Z 02007KT 29/11 A3005 RMK A01 T02920107  RH  032%=      5-min Rain = 0
KWA1 112342Z 04005KT 29/11 A3005 RMK A01 T02930109  RH  032%=      5-min Rain = 0
KWA1 112343Z 04006KT 29/11 A3005 RMK A01 T02930112  RH  033%=      5-min Rain = 0
KWA1 112344Z 04005KT 29/11 A3005 RMK A01 T02920109  RH  032%=      5-min Rain = 0
KWA1 112345Z 05005KT 29/11 A3005 RMK A01 T02920110  RH  032%=      5-min Rain = 0
KWA1 112346Z 04005KT 29/11 A3005 RMK A01 T02910111  RH  033%=      5-min Rain = 0
KWA1 112347Z 03005KT 29/11 A3005 RMK A01 T02910113  RH  033%=      5-min Rain = 0
KWA1 112348Z 03006KT 29/11 A3005 RMK A01 T02910114  RH  033%=      5-min Rain = 0
KWA1 112349Z 04007KT 29/12 A3005 RMK A01 T02910115  RH  034%=      5-min Rain = 0
KWA1 112350Z 04008KT 29/11 A3005 RMK A01 T02900109  RH  032%=      5-min Rain = 0
KWA1 112351Z 04006KT 29/11 A3005 RMK A01 T02900109  RH  032%=      5-min Rain = 0
KWA1 112352Z 03006KT 29/11 A3005 RMK A01 T02900110  RH  033%=      5-min Rain = 0
KWA1 112353Z 03006KT 29/11 A3005 RMK A01 T02890114  RH  034%=      5-min Rain = 0
KWA1 112354Z 03006KT 29/11 A3004 RMK A01 T02880112  RH  033%=      5-min Rain = 0
KWA1 112355Z 03006KT 29/11 A3005 RMK A01 T02880112  RH  034%=      5-min Rain = 0
KWA1 112356Z 04007KT 29/11 A3004 RMK A01 T02870113  RH  034%=      5-min Rain = 0
KWA1 112357Z 03008KT 29/11 A3004 RMK A01 T02870112  RH  034%=      5-min Rain = 0
KWA1 112358Z 03009KT 29/11 A3004 RMK A01 T02860107  RH  033%=      5-min Rain = 0
KWA1 112359Z 03007KT 29/11 A3004 RMK A01 T02860108  RH  033%=      5-min Rain = 0
KWA1 120000Z 03007KT 29/11 A3004 RMK A01 T02860109  RH  033%=      5-min Rain = 0
KWA1 120001Z 03006KT 29/11 A3004 RMK A01 T02860109  RH  033%=      5-min Rain = 0
KWA1 120002Z 04006KT 29/11 A3004 RMK A01 T02850110  RH  034%=      5-min Rain = 0
KWA1 120003Z 04007KT 29/11 A3004 RMK A01 T02850111  RH  034%=      5-min Rain = 0
KWA1 120004Z 03006KT 29/11 A3004 RMK A01 T02850111  RH  034%=      5-min Rain = 0
KWA1 120005Z 04006KT 28/11 A3004 RMK A01 T02840112  RH  034%=      5-min Rain = 0
KWA1 120006Z 03006KT 28/11 A3004 RMK A01 T02840111  RH  034%=      5-min Rain = 0
KWA1 120007Z 03007KT 28/11 A3004 RMK A01 T02830112  RH  035%=      5-min Rain = 0
KWA1 120008Z 03006KT 28/11 A3004 RMK A01 T02820109  RH  034%=      5-min Rain = 0
KWA1 120009Z 03007KT 28/11 A3004 RMK A01 T02820110  RH  034%=      5-min Rain = 0
KWA1 120010Z 03007KT 28/11 A3004 RMK A01 T02820112  RH  035%=      5-min Rain = 0
KWA1 120011Z 04006KT 28/11 A3004 RMK A01 T02820112  RH  035%=      5-min Rain = 0
KWA1 120012Z 04006KT 28/11 A3004 RMK A01 T02810114  RH  035%=      5-min Rain = 0
KWA1 120013Z 04006KT 28/11 A3004 RMK A01 T02800114  RH  036%=      5-min Rain = 0
KWA1 120014Z 04006KT 28/11 A3004 RMK A01 T02790114  RH  036%=      5-min Rain = 0
KWA1 120015Z 04006KT 28/11 A3004 RMK A01 T02780114  RH  036%=      5-min Rain = 0
KWA1 120016Z 04006KT 28/11 A3004 RMK A01 T02780114  RH  036%=      5-min Rain = 0
KWA1 120017Z 04006KT 28/11 A3004 RMK A01 T02770114  RH  036%=      5-min Rain = 0
KWA1 120018Z 05005KT 28/12 A3004 RMK A01 T02770116  RH  037%=      5-min Rain = 0
KWA1 120019Z 05004KT 28/12 A3004 RMK A01 T02750118  RH  038%=      5-min Rain = 0
KWA1 120020Z 05004KT 27/12 A3004 RMK A01 T02740120  RH  038%=      5-min Rain = 0
KWA1 120021Z 06005KT 27/12 A3004 RMK A01 T02730120  RH  039%=      5-min Rain = 0
KWA1 120022Z 06005KT 27/12 A3004 RMK A01 T02720119  RH  039%=      5-min Rain = 0
KWA1 120023Z 06006KT 27/12 A3004 RMK A01 T02710119  RH  039%=      5-min Rain = 0
KWA1 120024Z 06006KT 27/12 A3004 RMK A01 T02700115  RH  038%=      5-min Rain = 0
KWA1 120025Z 06005KT 27/11 A3004 RMK A01 T02710113  RH  037%=      5-min Rain = 0
KWA1 120026Z 05004KT 27/12 A3004 RMK A01 T02710116  RH  038%=      5-min Rain = 0
KWA1 120027Z 05004KT 27/12 A3004 RMK A01 T02700118  RH  039%=      5-min Rain = 0
KWA1 120028Z 05004KT 27/12 A3004 RMK A01 T02690119  RH  039%=      5-min Rain = 0
KWA1 120029Z 05005KT 27/12 A3004 RMK A01 T02670120  RH  040%=      5-min Rain = 0
KWA1 120030Z 05005KT 27/12 A3004 RMK A01 T02660120  RH  040%=      5-min Rain = 0
KWA1 120031Z 05005KT 27/12 A3004 RMK A01 T02650119  RH  040%=      5-min Rain = 0
KWA1 120032Z 05005KT 26/12 A3004 RMK A01 T02640120  RH  041%=      5-min Rain = 0
KWA1 120033Z 05005KT 26/12 A3004 RMK A01 T02630120  RH  041%=      5-min Rain = 0
KWA1 120034Z 05005KT 26/12 A3004 RMK A01 T02620120  RH  041%=      5-min Rain = 0
KWA1 120035Z 05005KT 26/12 A3004 RMK A01 T02610120  RH  041%=      5-min Rain = 0
KWA1 120036Z 05005KT 26/12 A3004 RMK A01 T02600119  RH  041%=      5-min Rain = 0
KWA1 120037Z 05004KT 26/12 A3004 RMK A01 T02590120  RH  042%=      5-min Rain = 0
KWA1 120038Z 04004KT 26/12 A3004 RMK A01 T02590120  RH  042%=      5-min Rain = 0
KWA1 120039Z 05004KT 26/12 A3004 RMK A01 T02570119  RH  042%=      5-min Rain = 0
KWA1 120040Z 04004KT 26/12 A3004 RMK A01 T02570120  RH  043%=      5-min Rain = 0
KWA1 120041Z 04004KT 26/12 A3004 RMK A01 T02560120  RH  043%=      5-min Rain = 0
KWA1 120042Z 05004KT 25/12 A3004 RMK A01 T02540121  RH  043%=      5-min Rain = 0
KWA1 120043Z 05004KT 25/12 A3004 RMK A01 T02530122  RH  044%=      5-min Rain = 0
KWA1 120044Z 05004KT 25/12 A3004 RMK A01 T02520121  RH  044%=      5-min Rain = 0
KWA1 120045Z 05004KT 25/12 A3004 RMK A01 T02520120  RH  044%=      5-min Rain = 0
KWA1 120046Z 04005KT 25/12 A3004 RMK A01 T02510120  RH  044%=      5-min Rain = 0
KWA1 120047Z 05005KT 25/12 A3004 RMK A01 T02500120  RH  044%=      5-min Rain = 0
KWA1 120048Z 05005KT 25/12 A3004 RMK A01 T02500120  RH  044%=      5-min Rain = 0
KWA1 120049Z 05005KT 25/12 A3004 RMK A01 T02490120  RH  044%=      5-min Rain = 0
KWA1 120050Z 05005KT 25/12 A3004 RMK A01 T02480120  RH  045%=      5-min Rain = 0
KWA1 120051Z 05005KT 25/12 A3004 RMK A01 T02470119  RH  045%=      5-min Rain = 0
KWA1 120052Z 05005KT 25/12 A3004 RMK A01 T02460117  RH  045%=      5-min Rain = 0
KWA1 120053Z 06005KT 25/12 A3004 RMK A01 T02460117  RH  045%=      5-min Rain = 0
KWA1 120054Z 06005KT 25/12 A3004 RMK A01 T02450118  RH  045%=      5-min Rain = 0
KWA1 120055Z 06006KT 25/12 A3004 RMK A01 T02450117  RH  045%=      5-min Rain = 0
KWA1 120056Z 06006KT 24/12 A3004 RMK A01 T02440117  RH  045%=      5-min Rain = 0
KWA1 120057Z 06006KT 24/12 A3004 RMK A01 T02440119  RH  046%=      5-min Rain = 0
KWA1 120058Z 06005KT 24/12 A3004 RMK A01 T02420119  RH  046%=      5-min Rain = 0
KWA1 120059Z 06005KT 24/12 A3004 RMK A01 T02410118  RH  046%=      5-min Rain = 0
KWA1 120100Z 06006KT 24/12 A3004 RMK A01 T02400117  RH  046%=      5-min Rain = 0
KWA1 120101Z 06006KT 24/12 A3004 RMK A01 T02400117  RH  046%=      5-min Rain = 0
KWA1 120102Z 06005KT 24/12 A3004 RMK A01 T02390118  RH  047%=      5-min Rain = 0
KWA1 120103Z 06005KT 24/12 A3004 RMK A01 T02390118  RH  047%=      5-min Rain = 0
KWA1 120104Z 05005KT 24/12 A3004 RMK A01 T02380118  RH  047%=      5-min Rain = 0
KWA1 120105Z 05006KT 24/12 A3004 RMK A01 T02370117  RH  047%=      5-min Rain = 0
KWA1 120106Z 06006KT 24/12 A3004 RMK A01 T02370117  RH  047%=      5-min Rain = 0
KWA1 120107Z 06006KT 24/12 A3004 RMK A01 T02370118  RH  047%=      5-min Rain = 0
KWA1 120108Z 06006KT 24/12 A3004 RMK A01 T02360118  RH  048%=      5-min Rain = 0
KWA1 120109Z 06006KT 24/12 A3004 RMK A01 T02350118  RH  048%=      5-min Rain = 0
KWA1 120110Z 06006KT 23/12 A3004 RMK A01 T02330117  RH  048%=      5-min Rain = 0
KWA1 120111Z 05006KT 23/12 A3004 RMK A01 T02330117  RH  048%=      5-min Rain = 0
KWA1 120112Z 06006KT 23/12 A3004 RMK A01 T02330117  RH  048%=      5-min Rain = 0
KWA1 120113Z 05006KT 23/12 A3004 RMK A01 T02320118  RH  049%=      5-min Rain = 0
KWA1 120114Z 05006KT 23/12 A3004 RMK A01 T02310117  RH  049%=      5-min Rain = 0
KWA1 120115Z 05006KT 23/12 A3004 RMK A01 T02310117  RH  049%=      5-min Rain = 0
KWA1 120116Z 05006KT 23/12 A3004 RMK A01 T02310117  RH  049%=      5-min Rain = 0
KWA1 120117Z 06006KT 23/12 A3004 RMK A01 T02320117  RH  049%=      5-min Rain = 0
KWA1 120118Z 06006KT 23/12 A3004 RMK A01 T02310116  RH  048%=      5-min Rain = 0
KWA1 120119Z 06006KT 23/12 A3004 RMK A01 T02310115  RH  048%=      5-min Rain = 0
KWA1 120120Z 06006KT 23/12 A3004 RMK A01 T02310116  RH  048%=      5-min Rain = 0
KWA1 120121Z 06006KT 23/12 A3004 RMK A01 T02300116  RH  049%=      5-min Rain = 0
KWA1 120122Z 06006KT 23/12 A3004 RMK A01 T02290116  RH  049%=      5-min Rain = 0
KWA1 120123Z 06005KT 23/12 A3004 RMK A01 T02280115  RH  049%=      5-min Rain = 0
KWA1 120124Z 06005KT 23/12 A3004 RMK A01 T02280116  RH  049%=      5-min Rain = 0
KWA1 120125Z 06005KT 23/12 A3004 RMK A01 T02280117  RH  050%=      5-min Rain = 0
KWA1 120126Z 06005KT 23/12 A3004 RMK A01 T02270117  RH  050%=      5-min Rain = 0
KWA1 120127Z 06005KT 23/12 A3004 RMK A01 T02270116  RH  050%=      5-min Rain = 0
KWA1 120128Z 06005KT 23/12 A3004 RMK A01 T02270116  RH  049%=      5-min Rain = 0
KWA1 120129Z 05005KT 23/12 A3004 RMK A01 T02270116  RH  050%=      5-min Rain = 0
KWA1 120130Z 05005KT 23/12 A3004 RMK A01 T02270116  RH  049%=      5-min Rain = 0
KWA1 120131Z 05005KT 23/12 A3004 RMK A01 T02270116  RH  049%=      5-min Rain = 0
KWA1 120132Z 05005KT 23/12 A3004 RMK A01 T02280116  RH  049%=      5-min Rain = 0
KWA1 120133Z 06005KT 23/12 A3004 RMK A01 T02280117  RH  049%=      5-min Rain = 0
KWA1 120134Z 06005KT 23/12 A3004 RMK A01 T02270116  RH  049%=      5-min Rain = 0
KWA1 120135Z 05005KT 23/12 A3004 RMK A01 T02280116  RH  049%=      5-min Rain = 0
KWA1 120136Z 05005KT 23/12 A3004 RMK A01 T02270117  RH  050%=      5-min Rain = 0
KWA1 120137Z 05004KT 23/12 A3004 RMK A01 T02270117  RH  050%=      5-min Rain = 0
KWA1 120138Z 05004KT 23/12 A3004 RMK A01 T02260118  RH  050%=      5-min Rain = 0
KWA1 120139Z 05004KT 23/12 A3004 RMK A01 T02250118  RH  051%=      5-min Rain = 0
KWA1 120140Z 05004KT 23/12 A3004 RMK A01 T02250118  RH  051%=      5-min Rain = 0
KWA1 120141Z 05004KT 22/12 A3004 RMK A01 T02240118  RH  051%=      5-min Rain = 0
KWA1 120142Z 05004KT 22/12 A3004 RMK A01 T02240118  RH  051%=      5-min Rain = 0
KWA1 120143Z 05004KT 23/12 A3004 RMK A01 T02250118  RH  051%=      5-min Rain = 0
KWA1 120144Z 05004KT 23/12 A3004 RMK A01 T02260118  RH  051%=      5-min Rain = 0
KWA1 120145Z 06004KT 23/12 A3004 RMK A01 T02260119  RH  051%=      5-min Rain = 0
KWA1 120146Z 08004KT 23/12 A3004 RMK A01 T02260120  RH  051%=      5-min Rain = 0
KWA1 120147Z 09004KT 22/12 A3005 RMK A01 T02240121  RH  052%=      5-min Rain = 0
KWA1 120148Z 09005KT 22/12 A3005 RMK A01 T02220120  RH  052%=      5-min Rain = 0
KWA1 120149Z 09005KT 22/12 A3005 RMK A01 T02210119  RH  052%=      5-min Rain = 0
KWA1 120150Z 07005KT 22/12 A3005 RMK A01 T02200118  RH  052%=      5-min Rain = 0
KWA1 120151Z 06004KT 22/12 A3005 RMK A01 T02210117  RH  052%=      5-min Rain = 0
KWA1 120152Z 06004KT 22/12 A3005 RMK A01 T02220116  RH  051%=      5-min Rain = 0
KWA1 120153Z 06004KT 22/12 A3005 RMK A01 T02220117  RH  051%=      5-min Rain = 0
KWA1 120154Z 06004KT 22/12 A3005 RMK A01 T02220116  RH  051%=      5-min Rain = 0
KWA1 120155Z 06004KT 22/12 A3005 RMK A01 T02220116  RH  051%=      5-min Rain = 0
KWA1 120156Z 07004KT 22/12 A3005 RMK A01 T02230117  RH  051%=      5-min Rain = 0
KWA1 120157Z 07004KT 22/12 A3005 RMK A01 T02230116  RH  051%=      5-min Rain = 0
KWA1 120158Z 07004KT 22/12 A3005 RMK A01 T02230116  RH  051%=      5-min Rain = 0
KWA1 120159Z 07004KT 22/12 A3005 RMK A01 T02240116  RH  050%=      5-min Rain = 0
KWA1 120200Z 07004KT 22/12 A3005 RMK A01 T02240116  RH  050%=      5-min Rain = 0
KWA1 120201Z 07004KT 22/12 A3005 RMK A01 T02240115  RH  050%=      5-min Rain = 0
KWA1 120202Z 09005KT 22/12 A3006 RMK A01 T02240116  RH  050%=      5-min Rain = 0
KWA1 120203Z 09005KT 22/12 A3006 RMK A01 T02240117  RH  051%=      5-min Rain = 0
KWA1 120204Z 09005KT 22/12 A3006 RMK A01 T02220118  RH  052%=      5-min Rain = 0
KWA1 120205Z 08005KT 22/12 A3006 RMK A01 T02200117  RH  052%=      5-min Rain = 0
KWA1 120206Z 08005KT 22/12 A3006 RMK A01 T02190116  RH  052%=      5-min Rain = 0
KWA1 120207Z 08005KT 22/12 A3006 RMK A01 T02200116  RH  052%=      5-min Rain = 0
KWA1 120208Z 08006KT 22/12 A3006 RMK A01 T02200116  RH  052%=      5-min Rain = 0
KWA1 120209Z 08006KT 22/12 A3006 RMK A01 T02200115  RH  051%=      5-min Rain = 0
KWA1 120210Z 08006KT 22/12 A3006 RMK A01 T02210116  RH  052%=      5-min Rain = 0
KWA1 120211Z 08005KT 22/12 A3006 RMK A01 T02210117  RH  052%=      5-min Rain = 0
KWA1 120212Z 08005KT 22/12 A3006 RMK A01 T02200116  RH  052%=      5-min Rain = 0
KWA1 120213Z 08005KT 22/12 A3006 RMK A01 T02200117  RH  052%=      5-min Rain = 0
KWA1 120214Z 09005KT 22/12 A3006 RMK A01 T02200118  RH  053%=      5-min Rain = 0
KWA1 120215Z 09005KT 22/12 A3006 RMK A01 T02190118  RH  053%=      5-min Rain = 0
KWA1 120216Z 09005KT 22/12 A3006 RMK A01 T02180118  RH  053%=      5-min Rain = 0
KWA1 120217Z 09005KT 22/12 A3006 RMK A01 T02170118  RH  053%=      5-min Rain = 0
KWA1 120218Z 09005KT 22/12 A3006 RMK A01 T02170118  RH  053%=      5-min Rain = 0
KWA1 120219Z 09005KT 22/12 A3006 RMK A01 T02180118  RH  053%=      5-min Rain = 0
KWA1 120220Z 09005KT 22/12 A3006 RMK A01 T02180118  RH  053%=      5-min Rain = 0
KWA1 120221Z 09005KT 22/12 A3006 RMK A01 T02190117  RH  052%=      5-min Rain = 0
KWA1 120222Z 09005KT 22/12 A3006 RMK A01 T02190117  RH  052%=      5-min Rain = 0
KWA1 120223Z 09004KT 22/12 A3006 RMK A01 T02190118  RH  052%=      5-min Rain = 0
KWA1 120224Z 10004KT 22/12 A3006 RMK A01 T02200117  RH  052%=      5-min Rain = 0
KWA1 120225Z 10004KT 22/12 A3006 RMK A01 T02210117  RH  052%=      5-min Rain = 0
KWA1 120226Z 10004KT 22/12 A3006 RMK A01 T02220117  RH  051%=      5-min Rain = 0
KWA1 120227Z 10004KT 22/12 A3006 RMK A01 T02220116  RH  051%=      5-min Rain = 0
KWA1 120228Z 11004KT 22/12 A3006 RMK A01 T02210117  RH  051%=      5-min Rain = 0
KWA1 120229Z 11004KT 22/12 A3006 RMK A01 T02190117  RH  052%=      5-min Rain = 0
KWA1 120230Z 11004KT 22/12 A3006 RMK A01 T02160117  RH  053%=      5-min Rain = 0
KWA1 120231Z 12004KT 21/12 A3006 RMK A01 T02140117  RH  054%=      5-min Rain = 0
KWA1 120232Z 11004KT 21/12 A3006 RMK A01 T02130117  RH  054%=      5-min Rain = 0
KWA1 120233Z 11004KT 21/12 A3006 RMK A01 T02120118  RH  055%=      5-min Rain = 0
KWA1 120234Z 11004KT 21/12 A3006 RMK A01 T02110118  RH  055%=      5-min Rain = 0
KWA1 120235Z 11004KT 21/12 A3006 RMK A01 T02100118  RH  056%=      5-min Rain = 0
KWA1 120236Z 11004KT 21/12 A3006 RMK A01 T02100118  RH  056%=      5-min Rain = 0
KWA1 120237Z 10004KT 21/12 A3006 RMK A01 T02090118  RH  056%=      5-min Rain = 0
KWA1 120238Z 10004KT 21/12 A3006 RMK A01 T02080118  RH  056%=      5-min Rain = 0
KWA1 120239Z 10004KT 21/12 A3006 RMK A01 T02080117  RH  056%=      5-min Rain = 0
KWA1 120240Z 10004KT 21/12 A3006 RMK A01 T02080117  RH  056%=      5-min Rain = 0
KWA1 120241Z 11004KT 21/12 A3006 RMK A01 T02080116  RH  056%=      5-min Rain = 0
KWA1 120242Z 10004KT 21/12 A3006 RMK A01 T02080116  RH  056%=      5-min Rain = 0
KWA1 120243Z 11004KT 21/12 A3006 RMK A01 T02080116  RH  056%=      5-min Rain = 0
KWA1 120244Z 10004KT 21/12 A3006 RMK A01 T02080117  RH  056%=      5-min Rain = 0
KWA1 120245Z 10004KT 21/12 A3006 RMK A01 T02080117  RH  056%=      5-min Rain = 0
KWA1 120246Z 10004KT 21/12 A3007 RMK A01 T02080117  RH  056%=      5-min Rain = 0
KWA1 120247Z 11004KT 21/12 A3007 RMK A01 T02070117  RH  056%=      5-min Rain = 0
KWA1 120248Z 11004KT 21/12 A3007 RMK A01 T02070117  RH  056%=      5-min Rain = 0
KWA1 120249Z 11004KT 21/12 A3007 RMK A01 T02060117  RH  057%=      5-min Rain = 0
KWA1 120250Z 11004KT 21/12 A3007 RMK A01 T02050117  RH  057%=      5-min Rain = 0
KWA1 120251Z 11004KT 21/12 A3007 RMK A01 T02050117  RH  057%=      5-min Rain = 0
KWA1 120252Z 12004KT 20/12 A3007 RMK A01 T02030117  RH  057%=      5-min Rain = 0
KWA1 120253Z 12004KT 20/12 A3007 RMK A01 T02030117  RH  057%=      5-min Rain = 0
KWA1 120254Z 12004KT 20/12 A3007 RMK A01 T02020117  RH  058%=      5-min Rain = 0
KWA1 120255Z 12004KT 20/12 A3007 RMK A01 T02010117  RH  059%=      5-min Rain = 0
KWA1 120256Z 12004KT 20/12 A3007 RMK A01 T01990116  RH  059%=      5-min Rain = 0
KWA1 120257Z 12004KT 20/12 A3007 RMK A01 T01980117  RH  060%=      5-min Rain = 0
KWA1 120258Z 12004KT 20/12 A3007 RMK A01 T01970117  RH  060%=      5-min Rain = 0
KWA1 120259Z 12004KT 20/12 A3007 RMK A01 T01960117  RH  060%=      5-min Rain = 0
KWA1 120300Z 12004KT 20/12 A3007 RMK A01 T01950116  RH  060%=      5-min Rain = 0
KWA1 120301Z 13004KT 20/12 A3007 RMK A01 T01950116  RH  060%=      5-min Rain = 0
KWA1 120302Z 13004KT 20/12 A3007 RMK A01 T01950116  RH  060%=      5-min Rain = 0
KWA1 120303Z 13004KT 20/12 A3007 RMK A01 T01950115  RH  060%=      5-min Rain = 0
KWA1 120304Z 14004KT 20/12 A3007 RMK A01 T01950115  RH  060%=      5-min Rain = 0
KWA1 120305Z 14004KT 20/12 A3007 RMK A01 T01950115  RH  060%=      5-min Rain = 0
KWA1 120306Z 14004KT 20/12 A3007 RMK A01 T01950115  RH  060%=      5-min Rain = 0
KWA1 120307Z 14004KT 20/12 A3007 RMK A01 T01950115  RH  060%=      5-min Rain = 0
KWA1 120308Z 14004KT 20/12 A3007 RMK A01 T01950116  RH  060%=      5-min Rain = 0
KWA1 120309Z 14004KT 20/12 A3007 RMK A01 T01950116  RH  060%=      5-min Rain = 0
KWA1 120310Z 14005KT 20/12 A3007 RMK A01 T01950117  RH  060%=      5-min Rain = 0
KWA1 120311Z 15005KT 20/12 A3007 RMK A01 T01950117  RH  061%=      5-min Rain = 0
KWA1 120312Z 15005KT 19/12 A3007 RMK A01 T01940117  RH  061%=      5-min Rain = 0
KWA1 120313Z 15005KT 19/12 A3007 RMK A01 T01920117  RH  061%=      5-min Rain = 0
KWA1 120314Z 15005KT 19/12 A3007 RMK A01 T01920117  RH  062%=      5-min Rain = 0
KWA1 120315Z 15005KT 19/12 A3007 RMK A01 T01900118  RH  063%=      5-min Rain = 0
KWA1 120316Z 15005KT 19/12 A3007 RMK A01 T01900118  RH  063%=      5-min Rain = 0
KWA1 120317Z 15005KT 19/12 A3007 RMK A01 T01900119  RH  063%=      5-min Rain = 0
KWA1 120318Z 15005KT 19/12 A3007 RMK A01 T01890119  RH  063%=      5-min Rain = 0
KWA1 120319Z 15005KT 19/12 A3007 RMK A01 T01900119  RH  064%=      5-min Rain = 0
KWA1 120320Z 15005KT 19/12 A3007 RMK A01 T01890118  RH  063%=      5-min Rain = 0
KWA1 120321Z 15005KT 19/12 A3007 RMK A01 T01900119  RH  063%=      5-min Rain = 0
KWA1 120322Z 15006KT 19/12 A3007 RMK A01 T01900119  RH  063%=      5-min Rain = 0
KWA1 120323Z 15005KT 19/12 A3007 RMK A01 T01900119  RH  063%=      5-min Rain = 0
KWA1 120324Z 15005KT 19/12 A3007 RMK A01 T01900119  RH  063%=      5-min Rain = 0
KWA1 120325Z 14005KT 19/12 A3007 RMK A01 T01900119  RH  063%=      5-min Rain = 0
KWA1 120326Z 14005KT 19/12 A3007 RMK A01 T01910119  RH  063%=      5-min Rain = 0
KWA1 120327Z 14005KT 19/12 A3007 RMK A01 T01910119  RH  063%=      5-min Rain = 0
KWA1 120328Z 14005KT 19/12 A3007 RMK A01 T01910119  RH  063%=      5-min Rain = 0
KWA1 120329Z 14005KT 19/12 A3007 RMK A01 T01920120  RH  063%=      5-min Rain = 0
KWA1 120330Z 14004KT 19/12 A3007 RMK A01 T01920119  RH  062%=      5-min Rain = 0
KWA1 120331Z 14004KT 19/12 A3007 RMK A01 T01930119  RH  062%=      5-min Rain = 0
KWA1 120332Z 14004KT 19/12 A3007 RMK A01 T01930118  RH  062%=      5-min Rain = 0
KWA1 120333Z 15005KT 19/12 A3007 RMK A01 T01940118  RH  062%=      5-min Rain = 0
KWA1 120334Z 14005KT 19/12 A3007 RMK A01 T01940118  RH  061%=      5-min Rain = 0
KWA1 120335Z 14004KT 20/12 A3007 RMK A01 T01950119  RH  061%=      5-min Rain = 0
KWA1 120336Z 14004KT 20/12 A3007 RMK A01 T01950119  RH  062%=      5-min Rain = 0
KWA1 120337Z 14005KT 19/12 A3007 RMK A01 T01940119  RH  062%=      5-min Rain = 0
KWA1 120338Z 14004KT 19/12 A3007 RMK A01 T01930119  RH  062%=      5-min Rain = 0
KWA1 120339Z 14005KT 19/12 A3007 RMK A01 T01930119  RH  062%=      5-min Rain = 0
KWA1 120340Z 15005KT 19/12 A3007 RMK A01 T01920119  RH  063%=      5-min Rain = 0
KWA1 120341Z 15005KT 19/12 A3007 RMK A01 T01910119  RH  063%=      5-min Rain = 0
KWA1 120342Z 15005KT 19/12 A3007 RMK A01 T01910119  RH  063%=      5-min Rain = 0
KWA1 120343Z 15005KT 19/12 A3007 RMK A01 T01900119  RH  063%=      5-min Rain = 0
KWA1 120344Z 15005KT 19/12 A3007 RMK A01 T01900119  RH  063%=      5-min Rain = 0
KWA1 120345Z 15005KT 19/12 A3007 RMK A01 T01890119  RH  064%=      5-min Rain = 0
KWA1 120346Z 15005KT 19/12 A3007 RMK A01 T01890119  RH  064%=      5-min Rain = 0
KWA1 120347Z 15005KT 19/12 A3007 RMK A01 T01880119  RH  064%=      5-min Rain = 0
KWA1 120348Z 15005KT 19/12 A3007 RMK A01 T01870119  RH  065%=      5-min Rain = 0
KWA1 120349Z 15005KT 19/12 A3007 RMK A01 T01860119  RH  065%=      5-min Rain = 0
KWA1 120350Z 15005KT 19/12 A3007 RMK A01 T01850118  RH  065%=      5-min Rain = 0
KWA1 120351Z 15005KT 19/12 A3007 RMK A01 T01850118  RH  065%=      5-min Rain = 0
KWA1 120352Z 15005KT 18/12 A3007 RMK A01 T01840118  RH  065%=      5-min Rain = 0
KWA1 120353Z 15005KT 18/12 A3007 RMK A01 T01840118  RH  065%=      5-min Rain = 0
KWA1 120354Z 15005KT 18/12 A3007 RMK A01 T01830118  RH  066%=      5-min Rain = 0
KWA1 120355Z 15005KT 18/12 A3007 RMK A01 T01830118  RH  066%=      5-min Rain = 0
KWA1 120356Z 16005KT 18/12 A3007 RMK A01 T01820118  RH  066%=      5-min Rain = 0
KWA1 120357Z 16005KT 18/12 A3007 RMK A01 T01810118  RH  066%=      5-min Rain = 0
KWA1 120358Z 16005KT 18/12 A3007 RMK A01 T01810118  RH  066%=      5-min Rain = 0
KWA1 120359Z 16005KT 18/12 A3007 RMK A01 T01810117  RH  066%=      5-min Rain = 0
KWA1 120400Z 17005KT 18/12 A3007 RMK A01 T01820118  RH  066%=      5-min Rain = 0
KWA1 120401Z 17005KT 18/12 A3007 RMK A01 T01820117  RH  066%=      5-min Rain = 0
KWA1 120402Z 17005KT 18/12 A3007 RMK A01 T01810117  RH  066%=      5-min Rain = 0
KWA1 120403Z 17005KT 18/12 A3007 RMK A01 T01820117  RH  066%=      5-min Rain = 0
KWA1 120404Z 17005KT 18/12 A3007 RMK A01 T01820117  RH  065%=      5-min Rain = 0
KWA1 120405Z 17005KT 18/12 A3007 RMK A01 T01820116  RH  066%=      5-min Rain = 0
KWA1 120406Z 17005KT 18/12 A3007 RMK A01 T01800116  RH  066%=      5-min Rain = 0
KWA1 120407Z 17005KT 18/12 A3007 RMK A01 T01800116  RH  066%=      5-min Rain = 0
KWA1 120408Z 17004KT 18/12 A3007 RMK A01 T01790116  RH  067%=      5-min Rain = 0
KWA1 120409Z 17004KT 18/12 A3007 RMK A01 T01790116  RH  067%=      5-min Rain = 0
KWA1 120410Z 17004KT 18/12 A3007 RMK A01 T01780115  RH  067%=      5-min Rain = 0
KWA1 120411Z 17005KT 18/12 A3007 RMK A01 T01770115  RH  067%=      5-min Rain = 0
KWA1 120412Z 16005KT 18/12 A3007 RMK A01 T01780116  RH  067%=      5-min Rain = 0
KWA1 120413Z 16005KT 18/12 A3007 RMK A01 T01790116  RH  067%=      5-min Rain = 0
KWA1 120414Z 15004KT 18/12 A3007 RMK A01 T01790118  RH  067%=      5-min Rain = 0
KWA1 120415Z 14004KT 18/12 A3007 RMK A01 T01770119  RH  069%=      5-min Rain = 0
KWA1 120416Z 15005KT 18/12 A3007 RMK A01 T01750118  RH  069%=      5-min Rain = 0
KWA1 120417Z 15006KT 18/12 A3007 RMK A01 T01760117  RH  069%=      5-min Rain = 0
KWA1 120418Z 15006KT 18/12 A3007 RMK A01 T01790118  RH  067%=      5-min Rain = 0
KWA1 120419Z 16006KT 18/12 A3007 RMK A01 T01810117  RH  066%=      5-min Rain = 0
KWA1 120420Z 15006KT 18/12 A3007 RMK A01 T01820116  RH  065%=      5-min Rain = 0
KWA1 120421Z 15005KT 18/12 A3007 RMK A01 T01830116  RH  065%=      5-min Rain = 0
KWA1 120422Z 14005KT 18/12 A3007 RMK A01 T01810116  RH  066%=      5-min Rain = 0
KWA1 120423Z 15006KT 18/12 A3007 RMK A01 T01790116  RH  066%=      5-min Rain = 0
KWA1 120424Z 15006KT 18/12 A3007 RMK A01 T01790115  RH  066%=      5-min Rain = 0
KWA1 120425Z 16006KT 18/12 A3007 RMK A01 T01800115  RH  066%=      5-min Rain = 0
KWA1 120426Z 16006KT 18/12 A3007 RMK A01 T01810115  RH  065%=      5-min Rain = 0
KWA1 120427Z 16006KT 18/12 A3007 RMK A01 T01820115  RH  065%=      5-min Rain = 0
KWA1 120428Z 16006KT 18/12 A3007 RMK A01 T01820116  RH  065%=      5-min Rain = 0
KWA1 120429Z 16006KT 18/12 A3007 RMK A01 T01810116  RH  066%=      5-min Rain = 0
KWA1 120430Z 16006KT 18/12 A3007 RMK A01 T01810116  RH  066%=      5-min Rain = 0
KWA1 120431Z 16005KT 18/12 A3007 RMK A01 T01800116  RH  066%=      5-min Rain = 0
KWA1 120432Z 16006KT 18/12 A3007 RMK A01 T01780116  RH  067%=      5-min Rain = 0
KWA1 120433Z 16005KT 18/12 A3007 RMK A01 T01770116  RH  067%=      5-min Rain = 0
KWA1 120434Z 17005KT 18/12 A3007 RMK A01 T01760116  RH  068%=      5-min Rain = 0
KWA1 120435Z 17004KT 18/12 A3007 RMK A01 T01750116  RH  068%=      5-min Rain = 0
KWA1 120436Z 17004KT 17/12 A3007 RMK A01 T01740116  RH  069%=      5-min Rain = 0
KWA1 120437Z 17005KT 17/12 A3007 RMK A01 T01730116  RH  069%=      5-min Rain = 0
KWA1 120438Z 17005KT 17/12 A3007 RMK A01 T01730116  RH  069%=      5-min Rain = 0
KWA1 120439Z 17005KT 17/12 A3007 RMK A01 T01720116  RH  070%=      5-min Rain = 0
KWA1 120440Z 17006KT 17/12 A3007 RMK A01 T01710116  RH  070%=      5-min Rain = 0
KWA1 120441Z 17006KT 17/12 A3007 RMK A01 T01710116  RH  070%=      5-min Rain = 0
KWA1 120442Z 17006KT 17/12 A3007 RMK A01 T01710116  RH  070%=      5-min Rain = 0
KWA1 120443Z 16006KT 17/12 A3007 RMK A01 T01700116  RH  070%=      5-min Rain = 0
KWA1 120444Z 16006KT 17/12 A3007 RMK A01 T01700116  RH  070%=      5-min Rain = 0
KWA1 120445Z 16006KT 17/12 A3007 RMK A01 T01690116  RH  071%=      5-min Rain = 0
KWA1 120446Z 16005KT 17/12 A3007 RMK A01 T01690116  RH  071%=      5-min Rain = 0
KWA1 120447Z 16006KT 17/12 A3007 RMK A01 T01690116  RH  071%=      5-min Rain = 0
KWA1 120448Z 16006KT 17/12 A3007 RMK A01 T01690116  RH  071%=      5-min Rain = 0
KWA1 120449Z 16006KT 17/12 A3007 RMK A01 T01690116  RH  071%=      5-min Rain = 0
KWA1 120450Z 16005KT 17/12 A3007 RMK A01 T01690116  RH  071%=      5-min Rain = 0
KWA1 120451Z 16006KT 17/12 A3007 RMK A01 T01690116  RH  071%=      5-min Rain = 0
KWA1 120452Z 16005KT 17/12 A3007 RMK A01 T01690116  RH  071%=      5-min Rain = 0
KWA1 120453Z 16005KT 17/12 A3007 RMK A01 T01680116  RH  071%=      5-min Rain = 0
KWA1 120454Z 16005KT 17/12 A3007 RMK A01 T01680116  RH  071%=      5-min Rain = 0
KWA1 120455Z 16005KT 17/12 A3007 RMK A01 T01680116  RH  071%=      5-min Rain = 0
KWA1 120456Z 16005KT 17/12 A3007 RMK A01 T01680115  RH  071%=      5-min Rain = 0
KWA1 120457Z 16005KT 17/12 A3007 RMK A01 T01690115  RH  071%=      5-min Rain = 0
KWA1 120458Z 16005KT 17/12 A3007 RMK A01 T01690115  RH  071%=      5-min Rain = 0
KWA1 120459Z 16005KT 17/12 A3007 RMK A01 T01690115  RH  071%=      5-min Rain = 0

Page generated in 0.1219 seconds.